M I D A S
Marine Information and Data Acquisition System
Tripno 2170 of the Zeeleeuw from 2011-08-24 07:46:48 to 2011-08-24 18:34:13
Back to CruiseResearch ActivitiesStationsMapUnderway DataData graphs

EquipmentUnitsComment
TimeDGPSUTC
LatitudeDGPSDM.mWGS84
LongitudeDGPSDM.mWGS84
TemperatureSBE03/SBE38deg celciusITS90
ConductivitySBE21S/mITS90
SalinitySBE21 Practical Salinity Units
ChlorophylAChelsea fluorimeterg/lCalibrated in Aceton
Missing or incorrect values are displayed as -999
Sea surface data collected by the RV Zeeleeuw from 2011-08-24 07:37:39 to 2011-08-24 18:44:02
                                                                                    Next 1000 lines
Time Latitude Longitude Temperature Conductivity Salinity ChlorophylA
2011-08-24 07:37:49 51°13.636 2°56.013 22.7629 0.009297 0.051461 -3.020363
2011-08-24 07:37:54 51°13.637 2°56.009 22.774 0.009297 0.051461 -3.020363
2011-08-24 07:37:59 51°13.638 2°56.004 22.7514 0.009297 0.051461 -3.020363
2011-08-24 07:38:04 51°13.64 2°55.999 22.7911 0.009297 0.05146 -3.020363
2011-08-24 07:38:10 51°13.642 2°55.992 22.7798 0.009297 0.05146 -3.020363
2011-08-24 07:38:16 51°13.644 2°55.984 22.8051 0.009297 0.051459 -3.020363
2011-08-24 07:38:22 51°13.645 2°55.977 22.8066 0.009297 0.051459 -3.020363
2011-08-24 07:38:27 51°13.646 2°55.97 22.8026 0.009297 0.051459 -3.020363
2011-08-24 07:38:32 51°13.648 2°55.964 22.7569 0.009297 0.051459 -3.020363
2011-08-24 07:38:38 51°13.649 2°55.956 22.8044 0.009297 0.051458 -3.020363
2011-08-24 07:38:43 51°13.651 2°55.95 22.7949 0.009297 0.051457 -3.020363
2011-08-24 07:38:48 51°13.653 2°55.943 22.7983 0.009297 0.051457 -3.020363
2011-08-24 07:38:52 51°13.654 2°55.938 22.7917 0.009297 0.051457 -3.020363
2011-08-24 07:38:57 51°13.657 2°55.931 22.7812 0.009297 0.051456 -3.020363
2011-08-24 07:39:03 51°13.66 2°55.923 22.7968 0.009297 0.051456 -3.020363
2011-08-24 07:39:08 51°13.663 2°55.916 22.8017 0.009297 0.051456 -3.020363
2011-08-24 07:39:12 51°13.665 2°55.91 22.813 0.009297 0.051456 -3.020363
2011-08-24 07:39:18 51°13.668 2°55.9 22.8154 0.009297 0.051454 -3.020363
2011-08-24 07:39:22 51°13.67 2°55.893 22.8233 0.009297 0.051454 -3.020363
2011-08-24 07:39:28 51°13.672 2°55.882 22.8256 0.009297 0.051453 -3.020363
2011-08-24 07:39:32 51°13.674 2°55.875 22.8424 0.009297 0.051453 -3.020363
2011-08-24 07:39:37 51°13.677 2°55.866 22.823 0.009297 0.051453 -3.020363
2011-08-24 07:39:42 51°13.68 2°55.857 22.8275 0.009297 0.051452 -3.020363
2011-08-24 07:39:48 51°13.684 2°55.846 22.8284 0.009297 0.051452 -3.020363
2011-08-24 07:39:52 51°13.686 2°55.838 22.8269 0.009297 0.051451 -3.020363
2011-08-24 07:39:58 51°13.691 2°55.827 22.7865 0.009297 0.05145 -3.020363
2011-08-24 07:40:03 51°13.695 2°55.818 22.7904 0.009297 0.05145 -3.020363
2011-08-24 07:40:07 51°13.698 2°55.81 22.7961 0.009297 0.05145 -3.020363
2011-08-24 07:40:12 51°13.701 2°55.8 22.8369 0.009297 0.051449 -3.020363
2011-08-24 07:40:18 51°13.706 2°55.789 22.8089 0.009297 0.051448 -3.020363
2011-08-24 07:40:23 51°13.71 2°55.779 22.818 0.009297 0.051448 -3.020363
2011-08-24 07:40:27 51°13.713 2°55.772 22.7985 0.009297 0.051447 -3.020363
2011-08-24 07:40:32 51°13.718 2°55.762 22.8073 0.009297 0.051447 -3.020363
2011-08-24 07:40:38 51°13.723 2°55.751 22.8167 0.009297 0.051446 -3.020363
2011-08-24 07:40:43 51°13.727 2°55.742 22.82 0.009297 0.051445 -3.020363
2011-08-24 07:40:48 51°13.732 2°55.734 22.7966 0.009297 0.051445 -3.020363
2011-08-24 07:40:52 51°13.735 2°55.727 22.8288 0.009297 0.051443 -3.020363
2011-08-24 07:40:57 51°13.74 2°55.719 22.8302 0.009297 0.051443 -3.020363
2011-08-24 07:41:03 51°13.745 2°55.709 22.8248 0.009297 0.051442 -3.020363
2011-08-24 07:41:08 51°13.749 2°55.702 22.8324 0.009297 0.051442 -3.020363
2011-08-24 07:41:12 51°13.753 2°55.696 22.8303 0.009297 0.051441 -3.020363
2011-08-24 07:41:17 51°13.758 2°55.69 22.8226 0.009297 0.051441 -3.020363
2011-08-24 07:41:22 51°13.762 2°55.683 22.8084 0.009297 0.05144 -3.020363
2011-08-24 07:41:28 51°13.768 2°55.676 22.8205 0.009297 0.051439 -3.020363
2011-08-24 07:41:32 51°13.772 2°55.672 22.7565 0.009297 0.051439 -3.020363
2011-08-24 07:41:37 51°13.777 2°55.666 22.7847 0.009297 0.051438 -3.020363
2011-08-24 07:41:42 51°13.783 2°55.661 22.793 0.009297 0.051437 -3.020363
2011-08-24 07:41:48 51°13.79 2°55.654 22.7874 0.009297 0.051436 -3.020363
2011-08-24 07:41:52 51°13.795 2°55.65 22.7784 0.009297 0.051435 -3.020363
2011-08-24 07:41:58 51°13.804 2°55.645 22.8352 0.009297 0.051434 -3.020363
2011-08-24 07:42:02 51°13.809 2°55.641 22.8111 0.009297 0.051434 -3.020363
2011-08-24 07:42:07 51°13.817 2°55.638 22.8046 0.009297 0.051434 -3.020363
2011-08-24 07:42:12 51°13.825 2°55.634 22.8383 0.009297 0.051432 -3.020363
2011-08-24 07:42:18 51°13.834 2°55.631 22.8358 0.009297 0.051432 -3.020363
2011-08-24 07:42:23 51°13.842 2°55.628 22.8313 0.009297 0.05143 -3.020363
2011-08-24 07:42:27 51°13.848 2°55.626 22.8236 0.009297 0.05143 -3.020363
2011-08-24 07:42:32 51°13.855 2°55.624 22.8311 0.009297 0.051428 -3.020363
2011-08-24 07:42:38 51°13.864 2°55.622 22.8247 0.009297 0.051428 -3.020363
2011-08-24 07:42:43 51°13.871 2°55.622 22.8177 0.009297 0.051428 -3.020363
2011-08-24 07:42:48 51°13.878 2°55.621 22.8173 0.009297 0.051427 -3.020363
2011-08-24 07:42:52 51°13.884 2°55.621 22.8392 0.009297 0.051426 -3.020363
2011-08-24 07:42:58 51°13.892 2°55.622 22.8403 0.009297 0.051425 -3.020363
2011-08-24 07:43:03 51°13.898 2°55.623 22.8089 0.009297 0.051423 -3.020363
2011-08-24 07:43:08 51°13.904 2°55.624 22.81 0.009297 0.051423 -3.020363
2011-08-24 07:43:12 51°13.909 2°55.625 22.814 0.009297 0.051422 -3.020363
2011-08-24 07:43:17 51°13.915 2°55.627 22.8238 0.009297 0.051421 -3.020363
2011-08-24 07:43:22 51°13.92 2°55.629 22.8336 0.009297 0.05142 -3.020363
2011-08-24 07:43:28 51°13.926 2°55.632 22.8333 0.009297 0.051419 -3.020363
2011-08-24 07:43:32 51°13.93 2°55.634 22.8386 0.009297 0.051419 -3.020363
2011-08-24 07:43:37 51°13.935 2°55.636 22.8417 0.009297 0.051417 -3.020363
2011-08-24 07:43:42 51°13.939 2°55.639 22.8175 0.009297 0.051416 -3.020363
2011-08-24 07:43:48 51°13.944 2°55.642 22.8148 0.009297 0.051415 -3.020363
2011-08-24 07:43:52 51°13.947 2°55.644 22.8401 0.009297 0.051414 -3.020363
2011-08-24 07:43:57 51°13.95 2°55.647 22.8589 0.009297 0.051413 -3.020363
2011-08-24 07:44:01 51°13.952 2°55.649 22.8189 0.009297 0.051413 -3.020363
2011-08-24 07:44:07 51°13.955 2°55.651 22.7942 0.009297 0.051412 -3.020363
2011-08-24 07:44:12 51°13.958 2°55.653 22.8537 0.009297 0.051411 -3.020363
2011-08-24 07:44:16 51°13.959 2°55.654 22.8596 0.009297 0.051409 -3.020363
2011-08-24 07:44:21 51°13.96 2°55.655 22.8338 0.009297 0.051408 -3.020363
2011-08-24 07:44:26 51°13.961 2°55.655 22.8258 0.009297 0.051406 -3.020363
2011-08-24 07:44:31 51°13.961 2°55.654 22.8512 0.009297 0.051405 -3.020363
2011-08-24 07:44:36 51°13.961 2°55.653 22.8105 0.009297 0.051405 -3.020363
2011-08-24 07:44:40 51°13.961 2°55.651 22.8493 0.009297 0.051404 -3.020363
2011-08-24 07:44:45 51°13.961 2°55.649 22.6833 0.009297 0.051402 -3.020363
2011-08-24 07:44:50 51°13.961 2°55.645 22.6745 0.009297 0.051401 -3.020363
2011-08-24 07:44:55 51°13.961 2°55.64 22.7158 0.009297 0.0514 -3.020363
2011-08-24 07:45:00 51°13.962 2°55.635 22.7392 0.009297 0.0514 -3.020363
2011-08-24 07:45:04 51°13.962 2°55.63 22.5823 0.009297 0.051398 -3.020363
2011-08-24 07:45:09 51°13.964 2°55.624 22.7226 0.009297 0.051397 -3.020363
2011-08-24 07:45:15 51°13.966 2°55.616 22.7402 0.009297 0.051395 -3.020363
2011-08-24 07:45:19 51°13.968 2°55.61 22.7357 0.009297 0.051393 -3.020363
2011-08-24 07:45:24 51°13.972 2°55.602 22.7316 0.009297 0.051392 -3.020363
2011-08-24 07:45:29 51°13.976 2°55.594 22.7585 0.009297 0.051392 -3.020363
2011-08-24 07:45:34 51°13.982 2°55.586 22.7827 0.009297 0.05139 -3.020363
2011-08-24 07:45:39 51°13.988 2°55.578 22.7739 0.009297 0.051389 -3.020363
2011-08-24 07:45:44 51°13.995 2°55.569 22.7766 0.009297 0.051387 -3.020363
2011-08-24 07:45:48 51°14 2°55.561 22.7881 0.009297 0.051386 -3.020363
2011-08-24 07:45:54 51°14.01 2°55.55 22.7882 0.009297 0.051385 -3.020363
2011-08-24 07:45:59 51°14.019 2°55.541 22.7844 0.009297 0.051385 -3.020363
2011-08-24 07:46:04 51°14.028 2°55.532 22.7854 0.009297 0.051383 -3.020363
2011-08-24 07:46:09 51°14.038 2°55.522 22.7899 0.009297 0.051381 -3.020363
2011-08-24 07:46:14 51°14.047 2°55.511 22.7376 0.009297 0.051379 -3.020363
2011-08-24 07:46:20 51°14.059 2°55.498 22.7428 0.009297 0.051378 -3.020363
2011-08-24 07:46:25 51°14.07 2°55.487 22.7692 0.009297 0.051376 -3.020363
2011-08-24 07:46:30 51°14.08 2°55.476 22.7297 0.009297 0.051375 -3.020363
2011-08-24 07:46:36 51°14.093 2°55.462 22.7119 0.009297 0.051375 -3.020363
2011-08-24 07:46:40 51°14.103 2°55.453 22.7706 0.009297 0.051373 -3.020363
2011-08-24 07:46:45 51°14.114 2°55.443 22.756 0.009297 0.051372 -3.020363
2011-08-24 07:46:51 51°14.128 2°55.429 22.7249 0.009297 0.05137 -3.020363
2011-08-24 07:46:56 51°14.14 2°55.418 22.7433 0.009297 0.051368 -3.020363
2011-08-24 07:47:01 51°14.153 2°55.407 22.7801 0.009297 0.051368 -3.020363
2011-08-24 07:47:06 51°14.165 2°55.396 22.7345 0.009297 0.051367 -3.020363
2011-08-24 07:47:11 51°14.177 2°55.385 22.7761 0.009297 0.051366 -3.020363
2011-08-24 07:47:16 51°14.19 2°55.373 22.7958 0.009297 0.051364 -3.020363
2011-08-24 07:47:21 51°14.202 2°55.361 22.7735 0.009297 0.051362 -3.020363
2011-08-24 07:47:26 51°14.214 2°55.35 22.7719 0.009297 0.051361 -3.020363
2011-08-24 07:47:31 51°14.227 2°55.338 22.7788 0.009297 0.051361 -3.020363
2011-08-24 07:47:36 51°14.24 2°55.326 22.7245 0.009297 0.051359 -3.020363
2011-08-24 07:47:42 51°14.256 2°55.312 22.7673 0.009297 0.051358 -3.020363
2011-08-24 07:47:48 51°14.271 2°55.298 22.7118 0.009297 0.051356 -3.020363
2011-08-24 07:47:52 51°14.282 2°55.289 22.793 0.009297 0.051355 -3.020363
2011-08-24 07:47:57 51°14.295 2°55.277 22.7826 0.009297 0.051354 -3.020363
2011-08-24 07:48:03 51°14.311 2°55.263 22.7622 0.009297 0.051352 -3.020363
2011-08-24 07:48:08 51°14.324 2°55.25 22.7203 0.009297 0.051352 -3.020363
2011-08-24 07:48:12 51°14.334 2°55.24 22.7725 0.009297 0.051351 -3.020363
2011-08-24 07:48:17 51°14.347 2°55.227 22.7699 0.009297 0.05135 -3.020363
2011-08-24 07:48:22 51°14.36 2°55.215 22.7175 0.009297 0.051348 -3.020363
2011-08-24 07:48:28 51°14.376 2°55.201 22.8009 0.009297 0.051347 -3.020363
2011-08-24 07:48:32 51°14.387 2°55.191 22.8004 0.009297 0.051346 -3.020363
2011-08-24 07:48:37 51°14.4 2°55.178 22.7416 0.009297 0.051346 -3.020363
2011-08-24 07:48:42 51°14.414 2°55.165 22.7536 0.009297 0.051345 -3.020363
2011-08-24 07:48:47 51°14.427 2°55.152 22.8041 0.009297 0.051344 -3.020363
2011-08-24 07:48:52 51°14.439 2°55.138 22.7358 0.009297 0.051342 -3.020363
2011-08-24 07:48:57 51°14.453 2°55.124 22.7975 0.009297 0.051341 -3.020363
2011-08-24 07:49:02 51°14.466 2°55.111 22.7491 0.009297 0.051341 -3.020363
2011-08-24 07:49:07 51°14.48 2°55.098 22.7889 0.009297 0.05134 -3.020363
2011-08-24 07:49:12 51°14.493 2°55.084 22.7454 0.009297 0.051339 -3.020363
2011-08-24 07:49:16 51°14.504 2°55.074 22.8037 0.009297 0.051337 -3.020363
2011-08-24 07:49:21 51°14.518 2°55.062 22.797 0.009297 0.051336 -3.020363
2011-08-24 07:49:26 51°14.532 2°55.048 22.755 0.009297 0.051334 -3.020363
2011-08-24 07:49:31 51°14.545 2°55.035 22.7734 0.009297 0.051334 -3.020363
2011-08-24 07:49:36 51°14.559 2°55.022 22.7787 0.009297 0.051334 -3.020363
2011-08-24 07:49:40 51°14.57 2°55.011 22.7661 0.009297 0.051333 -3.020363
2011-08-24 07:49:45 51°14.584 2°54.999 22.7933 0.009297 0.051332 -3.020363
2011-08-24 07:49:50 51°14.599 2°54.986 22.8021 0.009297 0.05133 -3.020363
2011-08-24 07:49:55 51°14.613 2°54.973 22.8255 0.009297 0.051329 -3.020363
2011-08-24 07:50:00 51°14.625 2°54.959 22.7921 0.009297 0.051328 -3.020363
2011-08-24 07:50:05 51°14.638 2°54.944 22.8498 0.009297 0.051328 -3.020363
2011-08-24 07:50:09 51°14.648 2°54.932 22.8384 0.009297 0.051327 -3.020363
2011-08-24 07:50:14 51°14.66 2°54.916 22.8443 0.009297 0.051326 -3.020363
2011-08-24 07:50:20 51°14.672 2°54.894 22.8328 0.009297 0.051325 -3.020363
2011-08-24 07:50:24 51°14.68 2°54.879 22.8242 0.009297 0.051324 -3.020363
2011-08-24 07:50:29 51°14.688 2°54.86 22.8218 0.009297 0.051324 -3.020363
2011-08-24 07:50:34 51°14.696 2°54.84 22.8092 0.009297 0.051322 -3.020363
2011-08-24 07:50:39 51°14.703 2°54.819 22.7898 0.009297 0.051322 -3.020363
2011-08-24 07:50:44 51°14.708 2°54.798 22.7759 0.009297 0.051321 -3.020363
2011-08-24 07:50:49 51°14.715 2°54.776 22.8241 0.009297 0.05132 -3.020363
2011-08-24 07:50:54 51°14.719 2°54.753 22.7936 0.009297 0.051319 -3.020363
2011-08-24 07:50:59 51°14.723 2°54.731 22.754 0.009297 0.051319 -3.020363
2011-08-24 07:51:04 51°14.727 2°54.707 22.7754 0.009297 0.051318 -3.020363
2011-08-24 07:51:09 51°14.729 2°54.683 22.7872 0.009297 0.051317 -3.020363
2011-08-24 07:51:14 51°14.731 2°54.659 22.7798 0.009297 0.051316 -3.020363
2011-08-24 07:51:19 51°14.732 2°54.634 22.7474 0.009297 0.051315 -3.020363
2011-08-24 07:51:24 51°14.732 2°54.609 22.7479 0.009297 0.051314 -3.020363
2011-08-24 07:51:29 51°14.732 2°54.583 22.6753 0.009297 0.051313 -3.020363
2011-08-24 07:51:34 51°14.731 2°54.558 22.6858 0.009297 0.051313 -3.020363
2011-08-24 07:51:39 51°14.73 2°54.533 22.6314 0.009297 0.051312 -3.020363
2011-08-24 07:51:44 51°14.729 2°54.507 22.7635 0.009297 0.051311 -3.020363
2011-08-24 07:51:48 51°14.728 2°54.487 22.6757 0.009297 0.05131 -3.020363
2011-08-24 07:51:54 51°14.726 2°54.456 22.7548 0.009297 0.051309 -3.020363
2011-08-24 07:51:59 51°14.724 2°54.431 22.7105 0.009297 0.051308 -3.020363
2011-08-24 07:52:04 51°14.722 2°54.405 22.7049 0.009297 0.051308 -3.020363
2011-08-24 07:52:08 51°14.72 2°54.385 22.7288 0.009297 0.051308 -3.020363
2011-08-24 07:52:14 51°14.717 2°54.354 22.7531 0.009297 0.051306 -3.020363
2011-08-24 07:52:19 51°14.715 2°54.329 22.6977 0.009297 0.051306 -3.020363
2011-08-24 07:52:24 51°14.712 2°54.303 22.7343 0.009297 0.051305 -3.020363
2011-08-24 07:52:28 51°14.71 2°54.283 22.7239 0.009297 0.051305 -3.020363
2011-08-24 07:52:34 51°14.707 2°54.252 22.6793 0.009297 0.051304 -3.020363
2011-08-24 07:52:39 51°14.704 2°54.227 22.7439 0.009297 0.051304 -3.020363
2011-08-24 07:52:44 51°14.702 2°54.201 22.7113 0.009297 0.051302 -3.020363
2011-08-24 07:52:48 51°14.7 2°54.181 22.6993 0.009297 0.051302 -3.020363
2011-08-24 07:52:54 51°14.697 2°54.15 22.6708 0.009297 0.051301 -3.020363
2011-08-24 07:52:59 51°14.694 2°54.124 22.7154 0.009297 0.051301 -3.020363
2011-08-24 07:53:04 51°14.692 2°54.098 22.688 0.009297 0.0513 -3.020363
2011-08-24 07:53:08 51°14.691 2°54.078 22.7132 0.009297 0.0513 -3.020363
2011-08-24 07:53:14 51°14.688 2°54.047 22.7002 0.009297 0.051299 -3.020363
2011-08-24 07:53:19 51°14.687 2°54.021 22.7317 0.009297 0.051298 -3.020363
2011-08-24 07:53:24 51°14.686 2°53.995 22.7549 0.009297 0.051297 -3.020363
2011-08-24 07:53:28 51°14.686 2°53.974 22.7025 0.009297 0.051297 -3.020363
2011-08-24 07:53:34 51°14.685 2°53.943 22.6767 0.009297 0.051297 -3.020363
2011-08-24 07:53:39 51°14.684 2°53.917 22.6774 0.009297 0.051296 -3.020363
2011-08-24 07:53:44 51°14.684 2°53.891 22.7108 0.009297 0.051295 -3.020363
2011-08-24 07:53:49 51°14.683 2°53.864 22.6533 0.009297 0.051294 -3.020363
2011-08-24 07:53:54 51°14.684 2°53.838 22.6557 0.009297 0.051294 -3.020363
2011-08-24 07:53:59 51°14.684 2°53.812 22.671 0.009297 0.051294 -3.020363
2011-08-24 07:54:04 51°14.686 2°53.786 22.7227 0.009297 0.051293 -3.020363
2011-08-24 07:54:08 51°14.687 2°53.765 22.7122 0.009297 0.051293 -3.020363
2011-08-24 07:54:14 51°14.689 2°53.734 22.7347 0.009297 0.051292 -3.020363
2011-08-24 07:54:19 51°14.692 2°53.708 22.7318 0.009297 0.051291 -3.020363
2011-08-24 07:54:24 51°14.694 2°53.682 22.7338 0.009297 0.051291 -3.020363
2011-08-24 07:54:29 51°14.697 2°53.656 22.7463 0.009297 0.051291 -3.020363
2011-08-24 07:54:34 51°14.699 2°53.629 22.6902 0.009297 0.05129 -3.020363
2011-08-24 07:54:39 51°14.701 2°53.603 22.7233 0.009297 0.05129 -3.020363
2011-08-24 07:54:44 51°14.703 2°53.576 22.7475 0.009297 0.05129 -3.020363
2011-08-24 07:54:49 51°14.704 2°53.55 22.7555 0.009297 0.051289 -3.020363
2011-08-24 07:54:54 51°14.706 2°53.524 22.7447 0.009297 0.051289 -3.020363
2011-08-24 07:54:59 51°14.707 2°53.497 22.7123 0.009297 0.051288 -3.020363
2011-08-24 07:55:04 51°14.708 2°53.471 22.7108 0.009297 0.051288 -3.020363
2011-08-24 07:55:09 51°14.709 2°53.444 22.7405 0.009297 0.051288 -3.020363
2011-08-24 07:55:14 51°14.709 2°53.418 22.7324 0.009297 0.051287 -3.020363
2011-08-24 07:55:19 51°14.709 2°53.391 22.7124 0.009297 0.051287 -3.020363
2011-08-24 07:55:24 51°14.71 2°53.365 22.7161 0.009297 0.051286 -3.020363
2011-08-24 07:55:29 51°14.711 2°53.339 22.6865 0.009297 0.051286 -3.020363
2011-08-24 07:55:34 51°14.712 2°53.312 22.7051 0.009297 0.051286 -3.020363
2011-08-24 07:55:39 51°14.714 2°53.286 22.7218 0.009297 0.051286 -3.020363
2011-08-24 07:55:44 51°14.716 2°53.26 22.7424 0.009297 0.051285 -3.020363
2011-08-24 07:55:49 51°14.718 2°53.234 22.708 0.009297 0.051285 -3.020363
2011-08-24 07:55:54 51°14.721 2°53.208 22.7331 0.009297 0.051285 -3.020363
2011-08-24 07:55:59 51°14.724 2°53.182 22.7382 0.009297 0.051285 -3.020363
2011-08-24 07:56:04 51°14.727 2°53.156 22.7335 0.009297 0.051284 -3.020363
2011-08-24 07:56:09 51°14.729 2°53.13 22.7463 0.009297 0.051283 -3.020363
2011-08-24 07:56:14 51°14.731 2°53.104 22.7367 0.009297 0.051283 -3.020363
2011-08-24 07:56:19 51°14.733 2°53.078 22.7431 0.009297 0.051283 -3.020363
2011-08-24 07:56:24 51°14.736 2°53.052 22.7276 0.009297 0.051283 -3.020363
2011-08-24 07:56:28 51°14.737 2°53.031 22.7378 0.009297 0.051283 -3.020363
2011-08-24 07:56:34 51°14.74 2°53 22.7555 0.009297 0.051283 -3.020363
2011-08-24 07:56:39 51°14.742 2°52.974 22.7291 0.009297 0.051282 -3.020363
2011-08-24 07:56:44 51°14.744 2°52.948 22.7505 0.009297 0.051282 -3.020363
2011-08-24 07:56:48 51°14.745 2°52.927 22.7512 0.009297 0.051282 -3.020363
2011-08-24 07:56:54 51°14.746 2°52.895 22.7677 0.009297 0.051282 -3.020363
2011-08-24 07:56:59 51°14.746 2°52.869 22.7424 0.009297 0.051281 -3.020363
2011-08-24 07:57:04 51°14.747 2°52.843 22.726 0.009297 0.051281 -3.020363
2011-08-24 07:57:08 51°14.747 2°52.822 22.7496 0.009297 0.051281 -3.020363
2011-08-24 07:57:14 51°14.747 2°52.791 22.7345 0.009297 0.051281 -3.020363
2011-08-24 07:57:19 51°14.747 2°52.764 22.7192 0.009297 0.051281 -3.020363
2011-08-24 07:57:24 51°14.748 2°52.738 22.7358 0.009297 0.051281 -3.020363
2011-08-24 07:57:29 51°14.748 2°52.712 22.6809 0.009297 0.051281 -3.020363
2011-08-24 07:57:34 51°14.749 2°52.685 22.7254 0.009297 0.05128 -3.020363
2011-08-24 07:57:39 51°14.751 2°52.659 22.7212 0.009297 0.05128 -3.020363
2011-08-24 07:57:44 51°14.753 2°52.633 22.7408 0.009297 0.05128 -3.020363
2011-08-24 07:57:48 51°14.754 2°52.612 22.7299 0.009297 0.051279 -3.020363
2011-08-24 07:57:54 51°14.757 2°52.581 22.7306 0.009297 0.051279 -3.020363
2011-08-24 07:57:59 51°14.76 2°52.555 22.7499 0.009297 0.051279 -3.020363
2011-08-24 07:58:04 51°14.762 2°52.529 22.7582 0.009297 0.051279 -3.020363
2011-08-24 07:58:08 51°14.764 2°52.508 22.7471 0.009297 0.051279 -3.020363
2011-08-24 07:58:14 51°14.767 2°52.477 22.7336 0.009297 0.051279 -3.020363
2011-08-24 07:58:19 51°14.769 2°52.451 22.7689 0.009297 0.051279 -3.020363
2011-08-24 07:58:24 51°14.771 2°52.425 22.7736 0.009297 0.051279 -3.020363
2011-08-24 07:58:28 51°14.773 2°52.405 22.7812 0.009297 0.051279 -3.020363
2011-08-24 07:58:34 51°14.774 2°52.374 22.7329 0.009297 0.051279 -3.020363
2011-08-24 07:58:39 51°14.775 2°52.348 22.7228 0.009297 0.051278 -3.020363
2011-08-24 07:58:44 51°14.776 2°52.322 22.7061 0.009297 0.051278 -3.020363
2011-08-24 07:58:48 51°14.776 2°52.301 22.7341 0.009297 0.051278 -3.020363
2011-08-24 07:58:54 51°14.776 2°52.27 22.739 0.009297 0.051278 -3.020363
2011-08-24 07:58:59 51°14.776 2°52.244 22.7066 0.009297 0.051278 -3.020363
2011-08-24 07:59:04 51°14.777 2°52.218 22.749 0.009297 0.051278 -3.020363
2011-08-24 07:59:08 51°14.777 2°52.197 22.6942 0.009297 0.051278 -3.020363
2011-08-24 07:59:14 51°14.777 2°52.166 22.7319 0.009297 0.051278 -3.020363
2011-08-24 07:59:19 51°14.778 2°52.139 22.7144 0.009297 0.051278 -3.020363
2011-08-24 07:59:24 51°14.779 2°52.113 22.7068 0.009297 0.051278 -3.020363
2011-08-24 07:59:28 51°14.78 2°52.092 22.742 0.009297 0.051278 -3.020363
2011-08-24 07:59:34 51°14.782 2°52.06 22.7577 0.009297 0.051278 -3.020363
2011-08-24 07:59:39 51°14.784 2°52.034 22.7544 0.009297 0.051278 -3.020363
2011-08-24 07:59:44 51°14.786 2°52.008 22.7383 0.009297 0.051278 -3.020363
2011-08-24 07:59:49 51°14.788 2°51.981 22.7567 0.009297 0.051278 -3.020363
2011-08-24 07:59:54 51°14.791 2°51.955 22.755 0.009297 0.051278 -3.020363
2011-08-24 07:59:59 51°14.793 2°51.929 22.7794 0.009297 0.051278 -3.020363
2011-08-24 08:00:04 51°14.795 2°51.903 22.77 0.009297 0.051278 -3.020363
2011-08-24 08:00:09 51°14.797 2°51.877 22.7951 0.009297 0.051278 -3.020363
2011-08-24 08:00:14 51°14.798 2°51.85 22.7769 0.009297 0.051278 -3.020363
2011-08-24 08:00:19 51°14.799 2°51.824 22.7833 0.009297 0.051278 -3.020363
2011-08-24 08:00:24 51°14.8 2°51.798 22.7587 0.009297 0.051278 -3.020363
2011-08-24 08:00:29 51°14.8 2°51.772 22.7684 0.009297 0.051278 -3.020363
2011-08-24 08:00:34 51°14.801 2°51.746 22.7762 0.009297 0.051278 -3.020363
2011-08-24 08:00:39 51°14.801 2°51.719 22.7586 0.009297 0.051278 -3.020363
2011-08-24 08:00:44 51°14.801 2°51.693 22.7714 0.009297 0.051278 -3.020363
2011-08-24 08:00:48 51°14.801 2°51.672 22.7727 0.009297 0.051279 -3.020363
2011-08-24 08:00:54 51°14.802 2°51.64 22.7101 0.009297 0.051279 -3.020363
2011-08-24 08:00:59 51°14.802 2°51.614 22.7484 0.009297 0.051279 -3.020363
2011-08-24 08:01:04 51°14.803 2°51.588 22.7458 0.009297 0.051279 -3.020363
2011-08-24 08:01:08 51°14.803 2°51.567 22.7562 0.009297 0.051279 -3.020363
2011-08-24 08:01:14 51°14.804 2°51.536 22.7698 0.009297 0.051279 -3.020363
2011-08-24 08:01:19 51°14.804 2°51.509 22.7359 0.009297 0.051279 -3.020363
2011-08-24 08:01:24 51°14.805 2°51.483 22.7402 0.009297 0.051279 -3.020363
2011-08-24 08:01:29 51°14.805 2°51.457 22.7364 0.009297 0.051279 -3.020363
2011-08-24 08:01:34 51°14.806 2°51.431 22.7478 0.009297 0.051279 -3.020363
2011-08-24 08:01:39 51°14.806 2°51.405 22.7584 0.009297 0.051279 -3.020363
2011-08-24 08:01:44 51°14.807 2°51.379 22.7514 0.009297 0.051279 -3.020363
2011-08-24 08:01:49 51°14.807 2°51.353 22.7552 0.009297 0.051279 -3.020363
2011-08-24 08:01:54 51°14.808 2°51.327 22.7587 0.009297 0.05128 -3.020363
2011-08-24 08:01:59 51°14.809 2°51.301 22.7582 0.009297 0.05128 -3.020363
2011-08-24 08:02:04 51°14.811 2°51.275 22.7171 0.009297 0.05128 -3.020363
2011-08-24 08:02:09 51°14.812 2°51.249 22.7206 0.009297 0.051281 -3.020363
2011-08-24 08:02:14 51°14.814 2°51.222 22.7285 0.009297 0.051281 -3.020363
2011-08-24 08:02:19 51°14.817 2°51.197 22.7173 0.009297 0.051281 -3.020363
2011-08-24 08:02:24 51°14.82 2°51.171 22.7783 0.009297 0.051281 -3.020363
2011-08-24 08:02:29 51°14.822 2°51.145 22.7391 0.009297 0.051281 -3.020363
2011-08-24 08:02:34 51°14.825 2°51.119 22.7749 0.009297 0.051281 -3.020363
2011-08-24 08:02:39 51°14.827 2°51.094 22.7755 0.009297 0.051281 -3.020363
2011-08-24 08:02:44 51°14.83 2°51.068 22.7624 0.009297 0.051281 -3.020363
2011-08-24 08:02:49 51°14.832 2°51.042 22.7878 0.009297 0.051282 -3.020363
2011-08-24 08:02:54 51°14.835 2°51.016 22.8038 0.009297 0.051282 -3.020363
2011-08-24 08:02:59 51°14.836 2°50.991 22.8148 0.009297 0.051282 -3.020363
2011-08-24 08:03:04 51°14.838 2°50.965 22.7661 0.009297 0.051282 -3.020363
2011-08-24 08:03:09 51°14.838 2°50.939 22.7774 0.009297 0.051282 -3.020363
2011-08-24 08:03:14 51°14.839 2°50.913 22.7984 0.009297 0.051282 -3.020363
2011-08-24 08:03:19 51°14.839 2°50.887 22.7918 0.009297 0.051283 -3.020363
2011-08-24 08:03:24 51°14.839 2°50.861 22.805 0.009297 0.051283 -3.020363
2011-08-24 08:03:29 51°14.839 2°50.835 22.7878 0.009297 0.051283 -3.020363
2011-08-24 08:03:34 51°14.838 2°50.809 22.7724 0.009297 0.051283 -3.020363
2011-08-24 08:03:39 51°14.838 2°50.783 22.7789 0.009297 0.051283 -3.020363
2011-08-24 08:03:44 51°14.837 2°50.758 22.7807 0.009297 0.051284 -3.020363
2011-08-24 08:03:48 51°14.836 2°50.737 22.7635 0.009297 0.051284 -3.020363
2011-08-24 08:03:54 51°14.834 2°50.706 22.7414 0.009297 0.051285 -3.020363
2011-08-24 08:03:59 51°14.834 2°50.68 22.7375 0.009297 0.051285 -3.020363
2011-08-24 08:04:04 51°14.833 2°50.655 22.726 0.009297 0.051285 -3.020363
2011-08-24 08:04:08 51°14.833 2°50.634 22.7887 0.009297 0.051285 -3.020363
2011-08-24 08:04:14 51°14.833 2°50.603 22.77 0.009297 0.051285 -3.020363
2011-08-24 08:04:19 51°14.834 2°50.577 22.7769 0.009297 0.051285 -3.020363
2011-08-24 08:04:24 51°14.836 2°50.551 22.7842 0.009297 0.051286 -3.020363
2011-08-24 08:04:28 51°14.837 2°50.531 22.8038 0.009297 0.051286 -3.020363
2011-08-24 08:04:34 51°14.839 2°50.5 22.8122 0.009297 0.051286 -3.020363
2011-08-24 08:04:39 51°14.841 2°50.474 22.8101 0.009297 0.051286 -3.020363
2011-08-24 08:04:44 51°14.842 2°50.448 22.7997 0.009297 0.051286 -3.020363
2011-08-24 08:04:48 51°14.843 2°50.428 22.7997 0.009297 0.051287 -3.020363
2011-08-24 08:04:54 51°14.844 2°50.397 22.7966 0.009297 0.051287 -3.020363
2011-08-24 08:04:59 51°14.845 2°50.371 22.7705 0.009297 0.051287 -3.020363
2011-08-24 08:05:04 51°14.846 2°50.345 22.8115 0.009297 0.051287 -3.020363
2011-08-24 08:05:08 51°14.846 2°50.325 22.8 0.009297 0.051287 -3.020363
2011-08-24 08:05:14 51°14.846 2°50.294 22.7882 0.009297 0.051288 -3.020363
2011-08-24 08:05:19 51°14.846 2°50.268 22.7558 0.009297 0.051288 -3.020363
2011-08-24 08:05:24 51°14.846 2°50.242 22.7912 0.009297 0.051289 -3.020363
2011-08-24 08:05:28 51°14.846 2°50.222 22.8065 0.009297 0.051289 -3.020363
2011-08-24 08:05:33 51°14.846 2°50.196 22.7857 0.009297 0.051289 -3.020363
2011-08-24 08:05:39 51°14.847 2°50.165 22.7769 0.009297 0.051289 -3.020363
2011-08-24 08:05:44 51°14.847 2°50.139 22.7543 0.009297 0.051289 -3.020363
2011-08-24 08:05:48 51°14.847 2°50.118 22.7779 0.009297 0.05129 -3.020363
2011-08-24 08:05:54 51°14.849 2°50.087 22.7687 0.009297 0.05129 -3.020363
2011-08-24 08:05:59 51°14.85 2°50.061 22.8068 0.009297 0.05129 -3.020363
2011-08-24 08:06:04 51°14.852 2°50.036 22.7963 0.009297 0.05129 -3.020363
2011-08-24 08:06:08 51°14.853 2°50.015 22.8073 0.009297 0.05129 -3.020363
2011-08-24 08:06:14 51°14.855 2°49.984 22.8402 0.009297 0.051291 -3.020363
2011-08-24 08:06:19 51°14.857 2°49.958 22.8116 0.009297 0.051291 -3.020363
2011-08-24 08:06:24 51°14.859 2°49.933 22.8253 0.009297 0.051291 -3.020363
2011-08-24 08:06:29 51°14.86 2°49.907 22.8082 0.009297 0.051291 -3.020363
2011-08-24 08:06:34 51°14.861 2°49.881 22.8231 0.009297 0.051291 -3.020363
2011-08-24 08:06:39 51°14.862 2°49.855 22.8171 0.009297 0.051292 -3.020363
2011-08-24 08:06:44 51°14.863 2°49.83 22.8258 0.009297 0.051293 -3.020363
2011-08-24 08:06:49 51°14.863 2°49.804 22.8245 0.009297 0.051293 -3.020363
2011-08-24 08:06:54 51°14.863 2°49.778 22.7923 0.009297 0.051293 -3.020363
2011-08-24 08:06:59 51°14.863 2°49.752 22.834 0.009297 0.051293 -3.020363
2011-08-24 08:07:04 51°14.863 2°49.726 22.8065 0.009297 0.051293 -3.020363
2011-08-24 08:07:09 51°14.863 2°49.701 22.8262 0.009297 0.051294 -3.020363
2011-08-24 08:07:14 51°14.863 2°49.675 22.7875 0.009297 0.051294 -3.020363
2011-08-24 08:07:19 51°14.863 2°49.649 22.8146 0.009297 0.051294 -3.020363
2011-08-24 08:07:24 51°14.863 2°49.623 22.8318 0.009297 0.051294 -3.020363
2011-08-24 08:07:28 51°14.863 2°49.602 22.8406 0.009297 0.051294 -3.020363
2011-08-24 08:07:34 51°14.863 2°49.571 22.8333 0.009297 0.051295 -3.020363
2011-08-24 08:07:39 51°14.863 2°49.545 22.8321 0.009297 0.051295 -3.020363
2011-08-24 08:07:44 51°14.863 2°49.52 22.8278 0.009297 0.051295 -3.020363
2011-08-24 08:07:48 51°14.863 2°49.499 22.8197 0.009297 0.051296 -3.020363
2011-08-24 08:07:53 51°14.864 2°49.473 22.8128 0.009297 0.051296 -3.020363
2011-08-24 08:07:59 51°14.864 2°49.442 22.7821 0.009297 0.051297 -3.020363
2011-08-24 08:08:04 51°14.864 2°49.416 22.7923 0.009297 0.051297 -3.020363
2011-08-24 08:08:09 51°14.865 2°49.39 22.8132 0.009297 0.051297 -3.020363
2011-08-24 08:08:14 51°14.865 2°49.364 22.822 0.009297 0.051297 -3.020363
2011-08-24 08:08:19 51°14.866 2°49.338 22.8097 0.009297 0.051297 -3.020363
2011-08-24 08:08:24 51°14.867 2°49.312 22.7842 0.009297 0.051298 -3.020363
2011-08-24 08:08:29 51°14.868 2°49.286 22.8225 0.009297 0.051298 -3.020363
2011-08-24 08:08:34 51°14.869 2°49.26 22.7971 0.009297 0.051298 -3.020363
2011-08-24 08:08:39 51°14.87 2°49.235 22.83 0.009297 0.051298 -3.020363
2011-08-24 08:08:44 51°14.871 2°49.209 22.8081 0.009297 0.051299 -3.020363
2011-08-24 08:08:48 51°14.871 2°49.188 22.816 0.009297 0.051299 -3.020363
2011-08-24 08:08:54 51°14.873 2°49.157 22.8047 0.009297 0.051299 -3.020363
2011-08-24 08:08:59 51°14.874 2°49.131 22.8179 0.009297 0.051299 -3.020363
2011-08-24 08:09:04 51°14.875 2°49.105 22.8362 0.009297 0.0513 -3.020363
2011-08-24 08:09:08 51°14.875 2°49.084 22.8216 0.009297 0.0513 -3.020363
2011-08-24 08:09:14 51°14.876 2°49.053 22.845 0.009297 0.051301 -3.020363
2011-08-24 08:09:19 51°14.877 2°49.028 22.8291 0.009297 0.051301 -3.020363
2011-08-24 08:09:24 51°14.878 2°49.002 22.8528 0.009297 0.051301 -3.020363
2011-08-24 08:09:28 51°14.879 2°48.981 22.8435 0.009297 0.051302 -3.020363
2011-08-24 08:09:34 51°14.88 2°48.95 22.8441 0.009297 0.051302 -3.020363
2011-08-24 08:09:39 51°14.88 2°48.924 22.8513 0.009297 0.051302 -3.020363
2011-08-24 08:09:44 51°14.881 2°48.898 22.8191 0.009297 0.051303 -3.020363
2011-08-24 08:09:48 51°14.881 2°48.878 22.8461 0.009297 0.051303 -3.020363
2011-08-24 08:09:54 51°14.882 2°48.846 22.822 0.009297 0.051303 -3.020363
2011-08-24 08:09:59 51°14.883 2°48.821 22.8569 0.009297 0.051304 -3.020363
2011-08-24 08:10:04 51°14.884 2°48.795 22.8488 0.009297 0.051304 -3.020363
2011-08-24 08:10:08 51°14.884 2°48.774 22.8428 0.009297 0.051304 -3.020363
2011-08-24 08:10:14 51°14.884 2°48.743 22.8678 0.009297 0.051305 -3.020363
2011-08-24 08:10:19 51°14.884 2°48.717 22.8526 0.009297 0.051305 -3.020363
2011-08-24 08:10:24 51°14.884 2°48.691 22.8679 0.009297 0.051306 -3.020363
2011-08-24 08:10:29 51°14.883 2°48.665 22.8133 0.009297 0.051306 -3.020363
2011-08-24 08:10:34 51°14.882 2°48.639 22.8346 0.009297 0.051306 -3.020363
2011-08-24 08:10:39 51°14.881 2°48.613 22.8469 0.009297 0.051306 -3.020363
2011-08-24 08:10:44 51°14.88 2°48.588 22.8381 0.009297 0.051306 -3.020363
2011-08-24 08:10:48 51°14.879 2°48.567 22.8519 0.009297 0.051307 -3.020363
2011-08-24 08:10:54 51°14.878 2°48.536 22.8491 0.009297 0.051308 -3.020363
2011-08-24 08:10:59 51°14.876 2°48.51 22.8473 0.009297 0.051308 -3.020363
2011-08-24 08:11:04 51°14.875 2°48.485 22.8221 0.009297 0.051308 -3.020363
2011-08-24 08:11:08 51°14.873 2°48.464 22.8027 0.009297 0.051308 -3.020363
2011-08-24 08:11:14 51°14.871 2°48.433 22.8215 0.009297 0.051309 -3.020363
2011-08-24 08:11:19 51°14.871 2°48.407 22.8181 0.009297 0.051309 -3.020363
2011-08-24 08:11:24 51°14.87 2°48.382 22.8306 0.009297 0.051309 -3.020363
2011-08-24 08:11:29 51°14.869 2°48.356 22.8409 0.009297 0.051309 -3.020363
2011-08-24 08:11:34 51°14.869 2°48.33 22.8464 0.009297 0.051309 -3.020363
2011-08-24 08:11:39 51°14.868 2°48.304 22.8433 0.009297 0.051309 -3.020363
2011-08-24 08:11:44 51°14.868 2°48.278 22.8384 0.009297 0.05131 -3.020363
2011-08-24 08:11:49 51°14.868 2°48.252 22.8481 0.009297 0.05131 -3.020363
2011-08-24 08:11:54 51°14.867 2°48.227 22.89 0.009297 0.05131 -3.020363
2011-08-24 08:11:59 51°14.865 2°48.201 22.8716 0.009297 0.05131 -3.020363
2011-08-24 08:12:04 51°14.864 2°48.175 22.868 0.009297 0.05131 -3.020363
2011-08-24 08:12:08 51°14.862 2°48.155 22.8744 0.009297 0.05131 -3.020363
2011-08-24 08:12:14 51°14.86 2°48.125 22.8488 0.009297 0.05131 -3.020363
2011-08-24 08:12:19 51°14.858 2°48.099 22.8397 0.009297 0.05131 -3.020363
2011-08-24 08:12:24 51°14.856 2°48.074 22.8324 0.009297 0.05131 -3.020363
2011-08-24 08:12:28 51°14.854 2°48.054 22.829 0.009297 0.05131 -3.020363
2011-08-24 08:12:33 51°14.852 2°48.028 22.8628 0.009297 0.05131 -3.020363
2011-08-24 08:12:39 51°14.85 2°47.998 22.8571 0.009297 0.05131 -3.020363
2011-08-24 08:12:44 51°14.848 2°47.973 22.861 0.009297 0.051309 -3.020363
2011-08-24 08:12:49 51°14.846 2°47.947 22.8664 0.009297 0.051309 -3.020363
2011-08-24 08:12:54 51°14.843 2°47.922 22.8493 0.009297 0.051309 -3.020363
2011-08-24 08:12:59 51°14.841 2°47.897 22.8647 0.009297 0.051309 -3.020363
2011-08-24 08:13:04 51°14.84 2°47.871 22.827 0.009297 0.051309 -3.020363
2011-08-24 08:13:09 51°14.838 2°47.846 22.8735 0.009297 0.051308 -3.020363
2011-08-24 08:13:14 51°14.837 2°47.82 22.852 0.009297 0.051308 -3.020363
2011-08-24 08:13:19 51°14.836 2°47.794 22.8697 0.009297 0.051308 -3.020363
2011-08-24 08:13:24 51°14.834 2°47.769 22.8631 0.009297 0.051307 -3.020363
2011-08-24 08:13:28 51°14.833 2°47.748 22.8799 0.009297 0.051306 -3.020363
2011-08-24 08:13:34 51°14.832 2°47.718 22.8802 0.009297 0.051306 -3.020363
2011-08-24 08:13:39 51°14.831 2°47.692 22.8701 0.009297 0.051306 -3.020363
2011-08-24 08:13:44 51°14.83 2°47.667 22.8524 0.009297 0.051305 -3.020363
2011-08-24 08:13:48 51°14.829 2°47.646 22.8797 0.009297 0.051305 -3.020363
2011-08-24 08:13:54 51°14.827 2°47.616 22.8811 0.009297 0.051304 -3.020363
2011-08-24 08:13:59 51°14.826 2°47.591 22.8555 0.009297 0.051304 -3.020363
2011-08-24 08:14:04 51°14.825 2°47.565 22.8742 0.009297 0.051304 -3.020363
2011-08-24 08:14:08 51°14.824 2°47.545 22.8756 0.009297 0.051303 -3.020363
2011-08-24 08:14:14 51°14.822 2°47.514 22.8968 0.009297 0.051302 -3.020363
2011-08-24 08:14:19 51°14.821 2°47.489 22.8444 0.009297 0.051302 -3.020363
2011-08-24 08:14:24 51°14.82 2°47.463 22.8951 0.009297 0.051301 -3.020363
2011-08-24 08:14:29 51°14.82 2°47.438 22.8526 0.009297 0.051301 -3.020363
2011-08-24 08:14:34 51°14.819 2°47.413 22.8931 0.009297 0.051301 -3.020363
2011-08-24 08:14:39 51°14.818 2°47.387 22.8814 0.009297 0.0513 -3.020363
2011-08-24 08:14:44 51°14.817 2°47.362 22.9031 0.009297 0.0513 -3.020363
2011-08-24 08:14:49 51°14.816 2°47.336 22.8962 0.009297 0.051298 -3.020363
2011-08-24 08:14:53 51°14.815 2°47.316 22.8953 0.009297 0.051298 -3.020363
2011-08-24 08:14:59 51°14.814 2°47.285 22.8362 0.009297 0.051297 -3.020363
2011-08-24 08:15:04 51°14.814 2°47.259 22.8795 0.009297 0.051297 -3.020363
2011-08-24 08:15:08 51°14.813 2°47.239 22.8956 0.009297 0.051297 -3.020363
2011-08-24 08:15:14 51°14.813 2°47.208 22.8785 0.009297 0.051296 -3.020363
2011-08-24 08:15:19 51°14.813 2°47.182 22.8672 0.009297 0.051296 -3.020363
2011-08-24 08:15:24 51°14.812 2°47.157 22.8817 0.009297 0.051295 -3.020363
2011-08-24 08:15:28 51°14.812 2°47.136 22.9008 0.009297 0.051295 -3.020363
2011-08-24 08:15:34 51°14.811 2°47.105 22.8858 0.009297 0.051295 -3.020363
2011-08-24 08:15:39 51°14.811 2°47.08 22.9216 0.009297 0.051294 -3.020363
2011-08-24 08:15:44 51°14.81 2°47.054 22.9101 0.009297 0.051294 -3.020363
2011-08-24 08:15:49 51°14.808 2°47.029 22.9284 0.009297 0.051293 -3.020363
2011-08-24 08:15:54 51°14.807 2°47.003 22.8844 0.009297 0.051293 -3.020363
2011-08-24 08:15:59 51°14.804 2°46.978 22.8995 0.009297 0.051293 -3.020363
2011-08-24 08:16:04 51°14.802 2°46.952 22.8507 0.009297 0.051293 -3.020363
2011-08-24 08:16:09 51°14.8 2°46.927 22.9021 0.009297 0.051293 -3.020363
2011-08-24 08:16:14 51°14.798 2°46.901 22.9 0.009297 0.051292 -3.020363
2011-08-24 08:16:19 51°14.795 2°46.875 22.9086 0.009297 0.051292 -3.020363
2011-08-24 08:16:24 51°14.793 2°46.85 22.8611 0.009297 0.051291 -3.020363
2011-08-24 08:16:28 51°14.791 2°46.829 22.8759 0.009297 0.051291 -3.020363
2011-08-24 08:16:34 51°14.788 2°46.798 22.8922 0.009297 0.051291 -3.020363
2011-08-24 08:16:39 51°14.786 2°46.773 22.881 0.009297 0.051291 -3.020363
2011-08-24 08:16:44 51°14.784 2°46.747 22.8786 0.009297 0.05129 -3.020363
2011-08-24 08:16:49 51°14.782 2°46.72 22.8687 0.009297 0.05129 -3.020363
2011-08-24 08:16:54 51°14.781 2°46.694 22.8991 0.009297 0.05129 -3.020363
2011-08-24 08:16:59 51°14.78 2°46.668 22.9047 0.009297 0.05129 -3.020363
2011-08-24 08:17:04 51°14.78 2°46.642 22.9092 0.009297 0.05129 -3.020363
2011-08-24 08:17:09 51°14.779 2°46.615 22.9059 0.009297 0.051289 -3.020363
2011-08-24 08:17:13 51°14.779 2°46.594 22.9288 0.009297 0.051289 -3.020363
2011-08-24 08:17:19 51°14.779 2°46.563 22.9317 0.009297 0.051289 -3.020363
2011-08-24 08:17:24 51°14.778 2°46.536 22.9019 0.009297 0.051289 -3.020363
2011-08-24 08:17:29 51°14.778 2°46.51 22.967 0.009297 0.051289 -3.020363
2011-08-24 08:17:34 51°14.776 2°46.484 22.918 0.009297 0.051289 -3.020363
2011-08-24 08:17:39 51°14.775 2°46.458 22.9373 0.009297 0.051289 -3.020363
2011-08-24 08:17:44 51°14.773 2°46.432 22.8861 0.009297 0.051289 -3.020363
2011-08-24 08:17:49 51°14.771 2°46.406 22.943 0.009297 0.051288 -3.020363
2011-08-24 08:17:54 51°14.769 2°46.38 22.8738 0.009297 0.051288 -3.020363
2011-08-24 08:17:59 51°14.766 2°46.354 22.9144 0.009297 0.051288 -3.020363
2011-08-24 08:18:04 51°14.764 2°46.328 22.9051 0.009297 0.051288 -3.020363
2011-08-24 08:18:09 51°14.762 2°46.302 22.9395 0.009297 0.051288 -3.020363
2011-08-24 08:18:14 51°14.76 2°46.276 22.8738 0.009297 0.051288 -3.020363
2011-08-24 08:18:19 51°14.757 2°46.25 22.9015 0.009297 0.051288 -3.020363
2011-08-24 08:18:24 51°14.755 2°46.224 22.9068 0.009297 0.051288 -3.020363
2011-08-24 08:18:29 51°14.753 2°46.198 22.8854 0.009297 0.051288 -3.020363
2011-08-24 08:18:34 51°14.75 2°46.172 22.9208 0.009297 0.051288 -3.020363
2011-08-24 08:18:39 51°14.748 2°46.146 22.8777 0.009297 0.051287 -3.020363
2011-08-24 08:18:44 51°14.746 2°46.12 22.9231 0.009297 0.051287 -3.020363
2011-08-24 08:18:48 51°14.745 2°46.099 22.9196 0.009297 0.051287 -3.020363
2011-08-24 08:18:54 51°14.742 2°46.068 22.9167 0.009297 0.051287 -3.020363
2011-08-24 08:18:59 51°14.74 2°46.042 22.9328 0.009297 0.051287 -3.020363
2011-08-24 08:19:04 51°14.739 2°46.016 22.9213 0.009297 0.051287 -3.020363
2011-08-24 08:19:08 51°14.737 2°45.995 22.9358 0.009297 0.051287 -3.020363
2011-08-24 08:19:14 51°14.735 2°45.963 22.9032 0.009297 0.051287 -3.020363
2011-08-24 08:19:19 51°14.733 2°45.937 22.9349 0.009297 0.051287 -3.020363
2011-08-24 08:19:24 51°14.731 2°45.911 22.9181 0.009297 0.051287 -3.020363
2011-08-24 08:19:28 51°14.73 2°45.89 22.9081 0.009297 0.051287 -3.020363
2011-08-24 08:19:34 51°14.728 2°45.859 22.9408 0.009297 0.051287 -3.020363
2011-08-24 08:19:39 51°14.727 2°45.832 22.9226 0.009297 0.051287 -3.020363
2011-08-24 08:19:44 51°14.726 2°45.806 22.9373 0.009297 0.051287 -3.020363
2011-08-24 08:19:48 51°14.725 2°45.785 22.93 0.009297 0.051287 -3.020363
2011-08-24 08:19:54 51°14.724 2°45.754 22.9294 0.009297 0.051287 -3.020363
2011-08-24 08:19:59 51°14.722 2°45.728 22.9749 0.009297 0.051287 -3.020363
2011-08-24 08:20:04 51°14.721 2°45.702 22.9198 0.009297 0.051287 -3.020363
2011-08-24 08:20:09 51°14.718 2°45.677 22.9462 0.009297 0.051287 -3.020363
2011-08-24 08:20:14 51°14.715 2°45.651 22.9084 0.009297 0.051287 -3.020363
2011-08-24 08:20:19 51°14.713 2°45.626 22.9548 0.009297 0.051287 -3.020363
2011-08-24 08:20:24 51°14.71 2°45.6 22.967 0.009297 0.051287 -3.020363
2011-08-24 08:20:28 51°14.707 2°45.58 22.9215 0.009297 0.051287 -3.020363
2011-08-24 08:20:34 51°14.702 2°45.55 22.9505 0.009297 0.051287 -3.020363
2011-08-24 08:20:39 51°14.698 2°45.525 22.9167 0.009297 0.051287 -3.020363
2011-08-24 08:20:44 51°14.694 2°45.501 22.9613 0.009297 0.051287 -3.020363
2011-08-24 08:20:48 51°14.691 2°45.481 22.9275 0.009297 0.051287 -3.020363
2011-08-24 08:20:54 51°14.685 2°45.451 22.9673 0.009297 0.051287 -3.020363
2011-08-24 08:20:59 51°14.68 2°45.427 22.9463 0.009297 0.051287 -3.020363
2011-08-24 08:21:04 51°14.674 2°45.403 22.9154 0.009297 0.051287 -3.020363
2011-08-24 08:21:08 51°14.67 2°45.383 22.9584 0.009297 0.051287 -3.020363
2011-08-24 08:21:14 51°14.664 2°45.354 22.9099 0.009297 0.051288 -3.020363
2011-08-24 08:21:19 51°14.658 2°45.33 22.9658 0.009297 0.051287 -3.020363
2011-08-24 08:21:24 51°14.654 2°45.306 22.8984 0.009297 0.051287 -3.020363
2011-08-24 08:21:28 51°14.649 2°45.287 22.9778 0.009297 0.051287 -3.020363
2011-08-24 08:21:33 51°14.644 2°45.262 22.9458 0.009297 0.051288 -3.020363
2011-08-24 08:21:39 51°14.638 2°45.233 22.9107 0.009297 0.051288 -3.020363
2011-08-24 08:21:44 51°14.633 2°45.208 22.9568 0.009297 0.051287 -3.020363
2011-08-24 08:21:49 51°14.628 2°45.184 22.9073 0.009297 0.051288 -3.020363
2011-08-24 08:21:54 51°14.623 2°45.16 22.9367 0.009297 0.051288 -3.020363
2011-08-24 08:21:59 51°14.618 2°45.135 22.9498 0.009297 0.051288 -3.020363
2011-08-24 08:22:04 51°14.614 2°45.11 22.8921 0.009297 0.051288 -3.020363
2011-08-24 08:22:09 51°14.61 2°45.085 22.9617 0.009297 0.051288 -3.020363
2011-08-24 08:22:14 51°14.607 2°45.06 22.9276 0.009297 0.051289 -3.020363
2011-08-24 08:22:19 51°14.602 2°45.036 22.954 0.009297 0.051289 -3.020363
2011-08-24 08:22:24 51°14.599 2°45.01 22.9695 0.009297 0.051289 -3.020363
2011-08-24 08:22:28 51°14.596 2°44.99 22.9179 0.009297 0.051289 -3.020363
2011-08-24 08:22:34 51°14.591 2°44.96 22.972 0.009297 0.051289 -3.020363
2011-08-24 08:22:39 51°14.587 2°44.935 22.937 0.009297 0.051289 -3.020363
2011-08-24 08:22:44 51°14.583 2°44.91 22.9865 0.009297 0.051289 -3.020363
2011-08-24 08:22:48 51°14.58 2°44.889 22.9599 0.009297 0.051289 -3.020363
2011-08-24 08:22:54 51°14.575 2°44.859 22.9834 0.009297 0.051289 -3.020363
2011-08-24 08:22:59 51°14.571 2°44.834 22.9713 0.009297 0.051289 -3.020363
2011-08-24 08:23:04 51°14.566 2°44.81 22.9344 0.009297 0.051289 -3.020363
2011-08-24 08:23:08 51°14.562 2°44.791 22.9718 0.009297 0.051289 -3.020363
2011-08-24 08:23:14 51°14.556 2°44.761 22.9456 0.009297 0.05129 -3.020363
2011-08-24 08:23:19 51°14.552 2°44.737 22.9872 0.009297 0.05129 -3.020363
2011-08-24 08:23:24 51°14.546 2°44.713 22.9396 0.009297 0.05129 -3.020363
2011-08-24 08:23:28 51°14.542 2°44.694 22.9756 0.009297 0.05129 -3.020363
2011-08-24 08:23:34 51°14.536 2°44.665 22.9223 0.009297 0.05129 -3.020363
2011-08-24 08:23:39 51°14.531 2°44.64 22.9856 0.009297 0.05129 -3.020363
2011-08-24 08:23:44 51°14.526 2°44.616 22.9198 0.009297 0.05129 -3.020363
2011-08-24 08:23:48 51°14.521 2°44.597 22.9907 0.009297 0.05129 -3.020363
2011-08-24 08:23:54 51°14.516 2°44.568 22.9447 0.009297 0.05129 -3.020363
2011-08-24 08:23:59 51°14.511 2°44.543 22.9806 0.009297 0.05129 -3.020363
2011-08-24 08:24:04 51°14.506 2°44.519 22.9808 0.009297 0.05129 -3.020363
2011-08-24 08:24:08 51°14.502 2°44.499 22.9784 0.009297 0.05129 -3.020363
2011-08-24 08:24:14 51°14.497 2°44.47 22.9707 0.009297 0.05129 -3.020363
2011-08-24 08:24:19 51°14.492 2°44.445 22.96 0.009297 0.051291 -3.020363
2011-08-24 08:24:24 51°14.488 2°44.421 22.9996 0.009297 0.051291 -3.020363
2011-08-24 08:24:29 51°14.483 2°44.396 22.9993 0.009297 0.051291 -3.020363
2011-08-24 08:24:34 51°14.479 2°44.372 22.9704 0.009297 0.051291 -3.020363
2011-08-24 08:24:39 51°14.473 2°44.348 22.9741 0.009297 0.051291 -3.020363
2011-08-24 08:24:44 51°14.468 2°44.323 22.9888 0.009297 0.051291 -3.020363
2011-08-24 08:24:48 51°14.464 2°44.304 23.0005 0.009297 0.051291 -3.020363
2011-08-24 08:24:54 51°14.457 2°44.276 22.9925 0.009297 0.051291 -3.020363
2011-08-24 08:24:59 51°14.451 2°44.252 22.9959 0.009297 0.051291 -3.020363
2011-08-24 08:25:04 51°14.445 2°44.228 23.0129 0.009297 0.051291 -3.020363
2011-08-24 08:25:08 51°14.44 2°44.209 22.9463 0.009297 0.051291 -3.020363
2011-08-24 08:25:14 51°14.432 2°44.181 23.0178 0.009297 0.051291 -3.020363
2011-08-24 08:25:19 51°14.426 2°44.157 22.9608 0.009297 0.051291 -3.020363
2011-08-24 08:25:24 51°14.419 2°44.134 23.0042 0.009297 0.051292 -3.020363
2011-08-24 08:25:29 51°14.412 2°44.111 22.9796 0.009297 0.051292 -3.020363
2011-08-24 08:25:34 51°14.405 2°44.088 22.9863 0.009297 0.051292 -3.020363
2011-08-24 08:25:39 51°14.398 2°44.064 22.9975 0.009297 0.051292 -3.020363
2011-08-24 08:25:44 51°14.391 2°44.041 22.929 0.009297 0.051292 -3.020363
2011-08-24 08:25:48 51°14.386 2°44.023 22.9804 0.009297 0.051292 -3.020363
2011-08-24 08:25:53 51°14.38 2°43.999 22.9451 0.009297 0.051292 -3.020363
2011-08-24 08:25:59 51°14.373 2°43.97 22.9851 0.009297 0.051292 -3.020363
2011-08-24 08:26:04 51°14.367 2°43.946 22.9825 0.009297 0.051292 -3.020363
2011-08-24 08:26:08 51°14.363 2°43.926 23.0034 0.009297 0.051292 -3.020363
2011-08-24 08:26:14 51°14.357 2°43.897 22.9947 0.009297 0.051293 -3.020363
2011-08-24 08:26:19 51°14.352 2°43.873 23.0183 0.009297 0.051293 -3.020363
2011-08-24 08:26:24 51°14.346 2°43.848 23.0167 0.009297 0.051293 -3.020363
2011-08-24 08:26:28 51°14.342 2°43.829 22.977 0.009297 0.051293 -3.020363
2011-08-24 08:26:34 51°14.336 2°43.8 23.0336 0.009297 0.051293 -3.020363
2011-08-24 08:26:39 51°14.331 2°43.775 23.0331 0.009297 0.051293 -3.020363
2011-08-24 08:26:44 51°14.325 2°43.751 23.0097 0.009297 0.051293 -3.020363
2011-08-24 08:26:48 51°14.32 2°43.732 23.0239 0.009297 0.051293 -3.020363
2011-08-24 08:26:54 51°14.313 2°43.704 23.0031 0.009297 0.051293 -3.020363
2011-08-24 08:26:59 51°14.306 2°43.68 23.0067 0.009297 0.051293 -3.020363
2011-08-24 08:27:04 51°14.3 2°43.656 22.9745 0.009297 0.051293 -3.020363
2011-08-24 08:27:09 51°14.293 2°43.633 23.0112 0.009297 0.051294 -3.020363
2011-08-24 08:27:14 51°14.287 2°43.609 23.0196 0.009297 0.051294 -3.020363
2011-08-24 08:27:19 51°14.28 2°43.586 23.0202 0.009297 0.051294 -3.020363
2011-08-24 08:27:24 51°14.273 2°43.562 23.04 0.009297 0.051294 -3.020363
2011-08-24 08:27:28 51°14.268 2°43.543 22.9876 0.009297 0.051294 -3.020363
2011-08-24 08:27:34 51°14.26 2°43.515 23.0285 0.009297 0.051294 -3.020363
2011-08-24 08:27:39 51°14.253 2°43.492 23.0101 0.009297 0.051294 -3.020363
2011-08-24 08:27:44 51°14.246 2°43.468 23.025 0.009297 0.051294 -3.020363
2011-08-24 08:27:48 51°14.241 2°43.45 22.9859 0.009297 0.051294 -3.020363
2011-08-24 08:27:54 51°14.232 2°43.422 23.0197 0.009297 0.051294 -3.020363
2011-08-24 08:27:59 51°14.225 2°43.398 22.9832 0.009297 0.051294 -3.020363
2011-08-24 08:28:04 51°14.219 2°43.375 23.0123 0.009297 0.051294 -3.020363
2011-08-24 08:28:08 51°14.214 2°43.356 22.967 0.009297 0.051294 -3.020363
2011-08-24 08:28:14 51°14.207 2°43.327 23.0362 0.009297 0.051294 -3.020363
2011-08-24 08:28:19 51°14.202 2°43.302 22.9797 0.009297 0.051293 -3.020363
2011-08-24 08:28:24 51°14.196 2°43.278 23.0222 0.009297 0.051293 -3.020363
2011-08-24 08:28:29 51°14.191 2°43.253 23.027 0.009297 0.051293 -3.020363
2011-08-24 08:28:34 51°14.186 2°43.229 23.0391 0.009297 0.051293 -3.020363
2011-08-24 08:28:39 51°14.18 2°43.204 23.0192 0.009297 0.051293 -3.020363
2011-08-24 08:28:44 51°14.174 2°43.18 23.0558 0.009297 0.051293 -3.020363
2011-08-24 08:28:48 51°14.17 2°43.161 23.0024 0.009297 0.051293 -3.020363
2011-08-24 08:28:54 51°14.163 2°43.132 23.0586 0.009297 0.051292 -3.020363
2011-08-24 08:28:59 51°14.157 2°43.108 23.0222 0.009297 0.051292 -3.020363
2011-08-24 08:29:04 51°14.15 2°43.084 23.0531 0.009297 0.051292 -3.020363
2011-08-24 08:29:08 51°14.145 2°43.065 23.0457 0.009297 0.051292 -3.020363
2011-08-24 08:29:14 51°14.137 2°43.037 23.0261 0.009297 0.051292 -3.020363
2011-08-24 08:29:19 51°14.13 2°43.014 23.0512 0.009297 0.051291 -3.020363
2011-08-24 08:29:24 51°14.124 2°42.99 23.0211 0.009297 0.051291 -3.020363
2011-08-24 08:29:29 51°14.116 2°42.967 23.0197 0.009297 0.051291 -3.020363
2011-08-24 08:29:34 51°14.11 2°42.944 23.0338 0.009297 0.051291 -3.020363
2011-08-24 08:29:39 51°14.103 2°42.921 23.003 0.009297 0.051291 -3.020363
2011-08-24 08:29:44 51°14.096 2°42.897 23.0539 0.009297 0.051291 -3.020363
2011-08-24 08:29:49 51°14.089 2°42.874 23.0469 0.009297 0.051291 -3.020363
2011-08-24 08:29:54 51°14.083 2°42.85 23.0353 0.009297 0.051291 -3.020363
2011-08-24 08:29:59 51°14.076 2°42.827 23.0367 0.009297 0.051291 -3.020363
2011-08-24 08:30:04 51°14.07 2°42.803 23.0576 0.009297 0.05129 -3.020363
2011-08-24 08:30:08 51°14.064 2°42.784 23.0151 0.009297 0.05129 -3.020363
2011-08-24 08:30:14 51°14.056 2°42.756 23.0637 0.009297 0.05129 -3.020363
2011-08-24 08:30:19 51°14.049 2°42.732 23.0237 0.009297 0.05129 -3.020363
2011-08-24 08:30:24 51°14.042 2°42.709 23.0197 0.009297 0.05129 -3.020363
2011-08-24 08:30:28 51°14.037 2°42.69 23.0146 0.009297 0.05129 -3.020363
2011-08-24 08:30:34 51°14.03 2°42.662 23.0422 0.009297 0.051289 -3.020363
2011-08-24 08:30:39 51°14.024 2°42.637 23.047 0.009297 0.051289 -3.020363
2011-08-24 08:30:44 51°14.018 2°42.613 23.0544 0.009297 0.051289 -3.020363
2011-08-24 08:30:49 51°14.013 2°42.588 23.0234 0.009297 0.051288 -3.020363
2011-08-24 08:30:54 51°14.008 2°42.563 23.0708 0.009297 0.051288 -3.020363
2011-08-24 08:30:59 51°14.003 2°42.539 23.051 0.009297 0.051287 -3.020363
2011-08-24 08:31:04 51°13.997 2°42.514 23.0911 0.009297 0.051287 -3.020363
2011-08-24 08:31:09 51°13.992 2°42.489 23.0445 0.009297 0.051287 -3.020363
2011-08-24 08:31:14 51°13.986 2°42.465 23.064 0.009297 0.051287 -3.020363
2011-08-24 08:31:19 51°13.981 2°42.44 23.0611 0.009297 0.051286 -3.020363
2011-08-24 08:31:24 51°13.975 2°42.416 23.0362 0.009297 0.051286 -3.020363
2011-08-24 08:31:28 51°13.97 2°42.396 23.045 0.009297 0.051286 -3.020363
2011-08-24 08:31:34 51°13.963 2°42.367 23.0907 0.009297 0.051286 -3.020363
2011-08-24 08:31:39 51°13.958 2°42.342 23.0399 0.009297 0.051285 -3.020363
2011-08-24 08:31:44 51°13.952 2°42.317 23.0746 0.009297 0.051285 -3.020363
2011-08-24 08:31:48 51°13.948 2°42.297 23.087 0.009297 0.051285 -3.020363
2011-08-24 08:31:54 51°13.942 2°42.267 23.0582 0.009297 0.051284 -3.020363
2011-08-24 08:31:59 51°13.937 2°42.242 23.0825 0.009297 0.051284 -3.020363
2011-08-24 08:32:04 51°13.931 2°42.217 23.075 0.009297 0.051283 -3.020363
2011-08-24 08:32:09 51°13.925 2°42.193 23.096 0.009297 0.051283 -3.020363
2011-08-24 08:32:14 51°13.92 2°42.168 23.0755 0.009297 0.051282 -3.020363
2011-08-24 08:32:19 51°13.913 2°42.144 23.0624 0.009297 0.051282 -3.020363
2011-08-24 08:32:24 51°13.907 2°42.119 23.079 0.009297 0.051281 -3.020363
2011-08-24 08:32:28 51°13.901 2°42.1 23.0499 0.009297 0.051281 -3.020363
2011-08-24 08:32:34 51°13.893 2°42.072 23.0934 0.009297 0.051281 -3.020363
2011-08-24 08:32:39 51°13.886 2°42.048 23.053 0.009297 0.05128 -3.020363
2011-08-24 08:32:44 51°13.879 2°42.025 23.0927 0.009297 0.051279 -3.020363
2011-08-24 08:32:48 51°13.873 2°42.006 23.0384 0.009297 0.051279 -3.020363
2011-08-24 08:32:54 51°13.864 2°41.978 23.0894 0.009297 0.051278 -3.020363
2011-08-24 08:32:59 51°13.858 2°41.954 23.0443 0.009297 0.051277 -3.020363
2011-08-24 08:33:04 51°13.85 2°41.93 23.0429 0.009297 0.051277 -3.020363
2011-08-24 08:33:09 51°13.844 2°41.906 23.0818 0.009297 0.051277 -3.020363
2011-08-24 08:33:14 51°13.837 2°41.882 23.0763 0.009297 0.051276 -3.020363
2011-08-24 08:33:19 51°13.83 2°41.858 23.108 0.009297 0.051275 -3.020363
2011-08-24 08:33:24 51°13.823 2°41.834 23.0609 0.009297 0.051274 -3.020363
2011-08-24 08:33:29 51°13.816 2°41.81 23.0881 0.009297 0.051274 -3.020363
2011-08-24 08:33:34 51°13.809 2°41.786 23.0988 0.009297 0.051273 -3.020363
2011-08-24 08:33:39 51°13.802 2°41.762 23.0619 0.009297 0.051273 -3.020363
2011-08-24 08:33:44 51°13.795 2°41.738 23.0771 0.009297 0.051271 -3.020363
2011-08-24 08:33:49 51°13.788 2°41.714 23.0619 0.009297 0.051271 -3.020363
2011-08-24 08:33:54 51°13.782 2°41.69 23.0988 0.009297 0.05127 -3.020363
2011-08-24 08:33:59 51°13.775 2°41.666 23.0998 0.009297 0.05127 -3.020363
2011-08-24 08:34:04 51°13.769 2°41.641 23.0853 0.009297 0.051269 -3.020363
2011-08-24 08:34:09 51°13.763 2°41.616 23.0387 0.009297 0.051269 -3.020363
2011-08-24 08:34:14 51°13.757 2°41.592 23.0841 0.009297 0.051267 -3.020363
2011-08-24 08:34:19 51°13.752 2°41.567 23.0934 0.009297 0.051267 -3.020363
2011-08-24 08:34:24 51°13.747 2°41.542 23.1162 0.009297 0.051266 -3.020363
2011-08-24 08:34:28 51°13.743 2°41.522 23.0755 0.009297 0.051265 -3.020363
2011-08-24 08:34:34 51°13.736 2°41.492 23.1437 0.009297 0.051265 -3.020363
2011-08-24 08:34:39 51°13.731 2°41.466 23.1285 0.009297 0.051264 -3.020363
2011-08-24 08:34:44 51°13.725 2°41.442 23.0645 0.009297 0.051263 -3.020363
2011-08-24 08:34:49 51°13.719 2°41.418 23.1348 0.009297 0.051262 -3.020363
2011-08-24 08:34:54 51°13.713 2°41.393 23.0566 0.009297 0.051261 -3.020363
2011-08-24 08:34:59 51°13.706 2°41.369 23.1175 0.009297 0.05126 -3.020363
2011-08-24 08:35:04 51°13.7 2°41.345 23.1035 0.009297 0.05126 -3.020363
2011-08-24 08:35:08 51°13.695 2°41.326 23.1357 0.009297 0.051259 -3.020363
2011-08-24 08:35:14 51°13.687 2°41.297 23.0834 0.009297 0.051258 -3.020363
2011-08-24 08:35:19 51°13.68 2°41.273 23.1346 0.009297 0.051258 -3.020363
2011-08-24 08:35:24 51°13.673 2°41.249 23.129 0.009297 0.051257 -3.020363
2011-08-24 08:35:28 51°13.667 2°41.23 23.0696 0.009297 0.051257 -3.020363
2011-08-24 08:35:34 51°13.659 2°41.201 23.1173 0.009297 0.051255 -3.020363
2011-08-24 08:35:39 51°13.653 2°41.177 23.084 0.009297 0.051255 -3.020363
2011-08-24 08:35:44 51°13.645 2°41.154 23.1095 0.009297 0.051254 -3.020363
2011-08-24 08:35:49 51°13.639 2°41.129 23.1229 0.009297 0.051253 -3.020363
2011-08-24 08:35:54 51°13.632 2°41.105 23.1105 0.009297 0.051252 -3.020363
2011-08-24 08:35:59 51°13.625 2°41.082 23.1335 0.009297 0.051252 -3.020363
2011-08-24 08:36:04 51°13.619 2°41.057 23.0721 0.009297 0.051251 -3.020363
2011-08-24 08:36:09 51°13.612 2°41.034 23.1092 0.009297 0.05125 -3.020363
2011-08-24 08:36:14 51°13.605 2°41.009 23.0569 0.009297 0.051249 -3.020363
2011-08-24 08:36:19 51°13.599 2°40.985 23.1242 0.009297 0.051249 -3.020363
2011-08-24 08:36:24 51°13.593 2°40.961 23.1056 0.009297 0.051248 -3.020363
2011-08-24 08:36:29 51°13.586 2°40.936 23.1254 0.009297 0.051248 -3.020363
2011-08-24 08:36:34 51°13.581 2°40.911 23.1014 0.009297 0.051248 -3.020363
2011-08-24 08:36:39 51°13.575 2°40.887 23.1171 0.009297 0.051246 -3.020363
2011-08-24 08:36:44 51°13.57 2°40.862 23.1067 0.009297 0.051246 -3.020363
2011-08-24 08:36:48 51°13.565 2°40.842 23.0926 0.009297 0.051245 -3.020363
2011-08-24 08:36:54 51°13.559 2°40.812 23.1324 0.009297 0.051245 -3.020363
2011-08-24 08:36:59 51°13.554 2°40.787 23.1461 0.009297 0.051245 -3.020363
2011-08-24 08:37:04 51°13.549 2°40.762 23.1401 0.009297 0.051244 -3.020363
2011-08-24 08:37:08 51°13.544 2°40.742 23.1404 0.009297 0.051244 -3.020363
2011-08-24 08:37:14 51°13.537 2°40.713 23.1529 0.009297 0.051243 -3.020363
2011-08-24 08:37:19 51°13.531 2°40.688 23.1223 0.009297 0.051242 -3.020363
2011-08-24 08:37:24 51°13.525 2°40.664 23.1376 0.009297 0.051242 -3.020363
2011-08-24 08:37:28 51°13.52 2°40.644 23.1274 0.009297 0.051242 -3.020363
2011-08-24 08:37:34 51°13.512 2°40.615 23.1323 0.009297 0.051241 -3.020363
2011-08-24 08:37:39 51°13.506 2°40.591 23.1474 0.009297 0.051241 -3.020363
2011-08-24 08:37:44 51°13.5 2°40.567 23.13 0.009297 0.051241 -3.020363
2011-08-24 08:37:48 51°13.494 2°40.548 23.1371 0.009297 0.05124 -3.020363
2011-08-24 08:37:54 51°13.487 2°40.519 23.1531 0.009297 0.05124 -3.020363
2011-08-24 08:37:59 51°13.48 2°40.495 23.1372 0.009297 0.051239 -3.020363
2011-08-24 08:38:04 51°13.473 2°40.471 23.1458 0.009297 0.051239 -3.020363
2011-08-24 08:38:08 51°13.467 2°40.452 23.1195 0.009297 0.051239 -3.020363
2011-08-24 08:38:14 51°13.459 2°40.424 23.1433 0.009297 0.051238 -3.020363
2011-08-24 08:38:19 51°13.452 2°40.4 23.116 0.009297 0.051238 -3.020363
2011-08-24 08:38:24 51°13.445 2°40.376 23.1461 0.009297 0.051238 -3.020363
2011-08-24 08:38:28 51°13.44 2°40.356 23.1523 0.009297 0.051238 -3.020363
2011-08-24 08:38:34 51°13.432 2°40.327 23.0902 0.009297 0.051238 -3.020363
2011-08-24 08:38:39 51°13.426 2°40.303 23.1543 0.009297 0.051237 -3.020363
2011-08-24 08:38:44 51°13.42 2°40.279 23.1288 0.009297 0.051237 -3.020363
2011-08-24 08:38:49 51°13.414 2°40.254 23.1537 0.009297 0.051237 -3.020363
2011-08-24 08:38:54 51°13.408 2°40.229 23.1253 0.009297 0.051237 -3.020363
2011-08-24 08:38:59 51°13.402 2°40.205 23.1603 0.009297 0.051237 -3.020363
2011-08-24 08:39:04 51°13.397 2°40.18 23.139 0.009297 0.051237 -3.020363
2011-08-24 08:39:08 51°13.392 2°40.16 23.1512 0.009297 0.051237 -3.020363
2011-08-24 08:39:14 51°13.386 2°40.13 23.144 0.009297 0.051237 -3.020363
2011-08-24 08:39:19 51°13.381 2°40.105 23.1573 0.009297 0.051236 -3.020363
2011-08-24 08:39:24 51°13.376 2°40.08 23.1712 0.009297 0.051236 -3.020363
2011-08-24 08:39:28 51°13.371 2°40.06 23.1259 0.009297 0.051236 -3.020363
2011-08-24 08:39:34 51°13.364 2°40.03 23.1835 0.009297 0.051236 -3.020363
2011-08-24 08:39:39 51°13.359 2°40.006 23.1387 0.009297 0.051236 -3.020363
2011-08-24 08:39:44 51°13.353 2°39.981 23.1815 0.009297 0.051236 -3.020363
2011-08-24 08:39:49 51°13.347 2°39.957 23.1498 0.009297 0.051236 -3.020363
2011-08-24 08:39:54 51°13.341 2°39.932 23.2015 0.009297 0.051236 -3.020363
2011-08-24 08:39:59 51°13.334 2°39.909 23.109 0.009297 0.051236 -3.020363
2011-08-24 08:40:04 51°13.328 2°39.884 23.174 0.009297 0.051236 -3.020363
2011-08-24 08:40:08 51°13.323 2°39.865 23.1453 0.009297 0.051236 -3.020363
2011-08-24 08:40:14 51°13.314 2°39.836 23.1523 0.009297 0.051236 -3.020363
2011-08-24 08:40:19 51°13.308 2°39.812 23.1487 0.009297 0.051236 -3.020363
2011-08-24 08:40:24 51°13.302 2°39.788 23.1568 0.009297 0.051236 -3.020363
2011-08-24 08:40:29 51°13.296 2°39.763 23.1726 0.009297 0.051236 -3.020363
2011-08-24 08:40:34 51°13.29 2°39.739 23.1796 0.009297 0.051236 -3.020363
2011-08-24 08:40:39 51°13.283 2°39.715 23.1846 0.009297 0.051236 -3.020363
2011-08-24 08:40:44 51°13.277 2°39.69 23.1717 0.009297 0.051236 -3.020363
2011-08-24 08:40:48 51°13.272 2°39.671 23.1632 0.009297 0.051236 -3.020363
2011-08-24 08:40:54 51°13.264 2°39.642 23.1752 0.009297 0.051237 -3.020363
2011-08-24 08:40:59 51°13.258 2°39.618 23.1774 0.009297 0.051237 -3.020363
2011-08-24 08:41:04 51°13.252 2°39.594 23.1737 0.009297 0.051237 -3.020363
2011-08-24 08:41:08 51°13.247 2°39.574 23.1806 0.009297 0.051237 -3.020363
2011-08-24 08:41:14 51°13.24 2°39.545 23.1611 0.009297 0.051237 -3.020363
2011-08-24 08:41:19 51°13.234 2°39.521 23.1798 0.009297 0.051237 -3.020363
2011-08-24 08:41:24 51°13.228 2°39.497 23.1451 0.009297 0.051237 -3.020363
2011-08-24 08:41:28 51°13.222 2°39.478 23.1854 0.009297 0.051237 -3.020363
2011-08-24 08:41:34 51°13.215 2°39.448 23.1707 0.009297 0.051237 -3.020363
2011-08-24 08:41:39 51°13.209 2°39.424 23.1784 0.009297 0.051237 -3.020363
2011-08-24 08:41:44 51°13.202 2°39.4 23.1867 0.009297 0.051237 -3.020363
2011-08-24 08:41:48 51°13.197 2°39.381 23.1884 0.009297 0.051238 -3.020363
2011-08-24 08:41:54 51°13.189 2°39.352 23.1906 0.009297 0.051238 -3.020363
2011-08-24 08:41:59 51°13.183 2°39.328 23.1927 0.009297 0.051238 -3.020363
2011-08-24 08:42:04 51°13.176 2°39.304 23.2057 0.009297 0.051238 -3.020363
2011-08-24 08:42:08 51°13.171 2°39.284 23.1622 0.009297 0.051238 -3.020363
2011-08-24 08:42:14 51°13.164 2°39.256 23.1854 0.009297 0.051238 -3.020363
2011-08-24 08:42:19 51°13.157 2°39.232 23.1755 0.009297 0.051238 -3.020363
2011-08-24 08:42:24 51°13.151 2°39.208 23.1969 0.009297 0.051238 -3.020363
2011-08-24 08:42:29 51°13.144 2°39.184 23.218 0.009297 0.051238 -3.020363
2011-08-24 08:42:34 51°13.138 2°39.16 23.1463 0.009297 0.051238 -3.020363
2011-08-24 08:42:39 51°13.131 2°39.135 23.2099 0.009297 0.051239 -3.020363
2011-08-24 08:42:44 51°13.125 2°39.111 23.1565 0.009297 0.051239 -3.020363
2011-08-24 08:42:48 51°13.119 2°39.092 23.2233 0.009297 0.051239 -3.020363
2011-08-24 08:42:54 51°13.112 2°39.063 23.1483 0.009297 0.05124 -3.020363
2011-08-24 08:42:59 51°13.105 2°39.039 23.1986 0.009297 0.05124 -3.020363
2011-08-24 08:43:04 51°13.099 2°39.015 23.1586 0.009297 0.05124 -3.020363
2011-08-24 08:43:08 51°13.094 2°38.996 23.2145 0.009297 0.05124 -3.020363
2011-08-24 08:43:14 51°13.087 2°38.966 23.1854 0.009297 0.05124 -3.020363
2011-08-24 08:43:19 51°13.081 2°38.941 23.189 0.009297 0.05124 -3.020363
2011-08-24 08:43:24 51°13.076 2°38.917 23.1924 0.009297 0.051241 -3.020363
2011-08-24 08:43:28 51°13.071 2°38.897 23.1936 0.009297 0.051241 -3.020363
2011-08-24 08:43:34 51°13.065 2°38.867 23.2169 0.009297 0.05124 -3.020363
2011-08-24 08:43:39 51°13.059 2°38.843 23.169 0.009297 0.051241 -3.020363
2011-08-24 08:43:44 51°13.054 2°38.818 23.244 0.009297 0.051241 -3.020363
2011-08-24 08:43:48 51°13.05 2°38.798 23.17 0.009297 0.051241 -3.020363
2011-08-24 08:43:54 51°13.043 2°38.769 23.2482 0.009297 0.051241 -3.020363
2011-08-24 08:43:59 51°13.038 2°38.744 23.2097 0.009297 0.051241 -3.020363
2011-08-24 08:44:04 51°13.033 2°38.72 23.2136 0.009297 0.051241 -3.020363
2011-08-24 08:44:08 51°13.028 2°38.7 23.2004 0.009297 0.051242 -3.020363
2011-08-24 08:44:14 51°13.021 2°38.67 23.2308 0.009297 0.051242 -3.020363
2011-08-24 08:44:19 51°13.015 2°38.646 23.2242 0.009297 0.051242 -3.020363
2011-08-24 08:44:24 51°13.009 2°38.622 23.2286 0.009297 0.051242 -3.020363
2011-08-24 08:44:28 51°13.004 2°38.602 23.1994 0.009297 0.051242 -3.020363
2011-08-24 08:44:34 51°12.996 2°38.573 23.2394 0.009297 0.051243 -3.020363
2011-08-24 08:44:39 51°12.99 2°38.549 23.183 0.009297 0.051243 -3.020363
2011-08-24 08:44:44 51°12.983 2°38.525 23.2217 0.009297 0.051243 -3.020363
2011-08-24 08:44:49 51°12.976 2°38.501 23.2012 0.009297 0.051244 -3.020363
2011-08-24 08:44:54 51°12.969 2°38.477 23.1856 0.009297 0.051244 -3.020363
2011-08-24 08:44:59 51°12.963 2°38.453 23.2234 0.009297 0.051244 -3.020363
2011-08-24 08:45:04 51°12.956 2°38.429 23.1601 0.009297 0.051244 -3.020363
2011-08-24 08:45:08 51°12.951 2°38.41 23.2157 0.009297 0.051244 -3.020363
2011-08-24 08:45:14 51°12.943 2°38.381 23.1626 0.009297 0.051245 -3.020363
2011-08-24 08:45:19 51°12.936 2°38.357 23.2134 0.009297 0.051245 -3.020363
2011-08-24 08:45:24 51°12.931 2°38.332 23.2339 0.009297 0.051245 -3.020363
2011-08-24 08:45:29 51°12.925 2°38.308 23.2013 0.009297 0.051245 -3.020363
2011-08-24 08:45:34 51°12.92 2°38.283 23.2148 0.009297 0.051245 -3.020363
2011-08-24 08:45:39 51°12.915 2°38.259 23.1913 0.009297 0.051246 -3.020363
2011-08-24 08:45:44 51°12.91 2°38.235 23.2178 0.009297 0.051246 -3.020363
2011-08-24 08:45:49 51°12.905 2°38.211 23.191 0.009297 0.051246 -3.020363
2011-08-24 08:45:54 51°12.901 2°38.187 23.2639 0.009297 0.051247 -3.020363
2011-08-24 08:45:59 51°12.897 2°38.162 23.2216 0.009297 0.051247 -3.020363
2011-08-24 08:46:04 51°12.892 2°38.138 23.2111 0.009297 0.051247 -3.020363
2011-08-24 08:46:08 51°12.889 2°38.119 23.1994 0.009297 0.051248 -3.020363
2011-08-24 08:46:14 51°12.885 2°38.091 23.2233 0.009297 0.051248 -3.020363
2011-08-24 08:46:19 51°12.881 2°38.07 23.2386 0.009297 0.051248 -3.020363
2011-08-24 08:46:24 51°12.878 2°38.051 23.2613 0.009297 0.051249 -3.020363
2011-08-24 08:46:28 51°12.875 2°38.036 23.262 0.009297 0.051249 -3.020363
2011-08-24 08:46:34 51°12.872 2°38.014 23.2367 0.009297 0.051249 -3.020363
2011-08-24 08:46:39 51°12.869 2°37.998 23.2567 0.009297 0.051249 -3.020363
2011-08-24 08:46:44 51°12.866 2°37.982 23.2394 0.009297 0.05125 -3.020363
2011-08-24 08:46:49 51°12.864 2°37.967 23.2472 0.009297 0.05125 -3.020363
2011-08-24 08:46:54 51°12.862 2°37.952 23.2276 0.009297 0.05125 -3.020363
2011-08-24 08:46:59 51°12.861 2°37.939 23.2423 0.009297 0.05125 -3.020363
2011-08-24 08:47:04 51°12.86 2°37.926 23.2616 0.009297 0.051251 -3.020363
2011-08-24 08:47:08 51°12.859 2°37.916 23.2665 0.009297 0.051251 -3.020363
2011-08-24 08:47:14 51°12.859 2°37.902 23.2783 0.009297 0.051251 -3.020363
2011-08-24 08:47:19 51°12.859 2°37.89 23.2543 0.009297 0.051252 -3.020363
2011-08-24 08:47:24 51°12.859 2°37.88 23.2609 0.009297 0.051253 -3.020363
2011-08-24 08:47:29 51°12.86 2°37.869 23.2786 0.009297 0.051253 -3.020363
2011-08-24 08:47:34 51°12.86 2°37.86 23.2758 0.009297 0.051253 -3.020363
2011-08-24 08:47:39 51°12.861 2°37.85 23.2726 0.009297 0.051253 -3.020363
2011-08-24 08:47:44 51°12.862 2°37.841 23.2658 0.009297 0.051253 -3.020363
2011-08-24 08:47:49 51°12.864 2°37.833 23.2664 0.009297 0.051254 -3.020363
2011-08-24 08:47:54 51°12.866 2°37.825 23.2594 0.009297 0.051254 -3.020363
2011-08-24 08:47:59 51°12.868 2°37.818 23.2882 0.009297 0.051254 -3.020363
2011-08-24 08:48:04 51°12.87 2°37.811 23.2942 0.009297 0.051254 -3.020363
2011-08-24 08:48:08 51°12.872 2°37.805 23.2921 0.009297 0.051254 -3.020363
2011-08-24 08:48:14 51°12.875 2°37.797 23.2995 0.009297 0.051255 -3.020363
2011-08-24 08:48:19 51°12.878 2°37.791 23.307 0.009297 0.051255 -3.020363
2011-08-24 08:48:24 51°12.881 2°37.785 23.2937 0.009297 0.051255 -3.020363
2011-08-24 08:48:28 51°12.883 2°37.78 23.3198 0.009297 0.051255 -3.020363
2011-08-24 08:48:34 51°12.887 2°37.773 23.3138 0.009297 0.051256 -3.020363
2011-08-24 08:48:39 51°12.889 2°37.767 23.3128 0.009297 0.051256 -3.020363
2011-08-24 08:48:44 51°12.893 2°37.762 23.3054 0.009297 0.051257 -3.020363
2011-08-24 08:48:49 51°12.896 2°37.756 23.2845 0.009297 0.051257 -3.020363
2011-08-24 08:48:54 51°12.899 2°37.75 23.2949 0.009297 0.051257 -3.020363
2011-08-24 08:48:59 51°12.901 2°37.743 23.2727 0.009297 0.051257 -3.020363
2011-08-24 08:49:04 51°12.904 2°37.737 23.2588 0.009297 0.051257 -3.020363
2011-08-24 08:49:08 51°12.907 2°37.732 23.259 0.009297 0.051258 -3.020363
2011-08-24 08:49:14 51°12.91 2°37.725 23.2698 0.009297 0.051258 -3.020363
2011-08-24 08:49:19 51°12.913 2°37.719 23.278 0.009297 0.051258 -3.020363
2011-08-24 08:49:24 51°12.916 2°37.712 23.2924 0.009297 0.051258 -3.020363
2011-08-24 08:49:29 51°12.919 2°37.706 23.312 0.009297 0.051258 -3.020363
2011-08-24 08:49:34 51°12.922 2°37.7 23.3174 0.009297 0.051258 -3.020363
2011-08-24 08:49:39 51°12.925 2°37.693 23.3078 0.009297 0.051258 -3.020363
2011-08-24 08:49:44 51°12.928 2°37.687 23.3158 0.009297 0.051259 -3.020363
2011-08-24 08:49:48 51°12.93 2°37.682 23.3054 0.009297 0.051259 -3.020363
2011-08-24 08:49:54 51°12.934 2°37.674 23.3088 0.009297 0.051259 -3.020363
2011-08-24 08:49:59 51°12.937 2°37.668 23.294 0.009297 0.051259 -3.020363
2011-08-24 08:50:04 51°12.94 2°37.661 23.2788 0.009297 0.051259 -3.020363
2011-08-24 08:50:09 51°12.943 2°37.655 23.267 0.009297 0.051259 -3.020363
2011-08-24 08:50:14 51°12.947 2°37.649 23.2863 0.009297 0.051259 -3.020363
2011-08-24 08:50:19 51°12.95 2°37.644 23.2931 0.009297 0.05126 -3.020363
2011-08-24 08:50:24 51°12.953 2°37.639 23.2718 0.009297 0.05126 -3.020363
2011-08-24 08:50:29 51°12.956 2°37.635 23.2923 0.009297 0.05126 -3.020363
2011-08-24 08:50:34 51°12.958 2°37.632 23.2957 0.009297 0.05126 -3.020363
2011-08-24 08:50:39 51°12.961 2°37.629 23.3069 0.009297 0.05126 -3.020363
2011-08-24 08:50:44 51°12.962 2°37.628 23.299 0.009297 0.05126 -3.020363
2011-08-24 08:50:49 51°12.963 2°37.628 23.3138 0.009297 0.051261 -3.020363
2011-08-24 08:50:54 51°12.964 2°37.629 23.2781 0.009297 0.051261 -3.020363
2011-08-24 08:50:59 51°12.964 2°37.631 23.2968 0.009297 0.051261 -3.020363
2011-08-24 08:51:04 51°12.965 2°37.632 23.3091 0.009297 0.051261 -3.020363
2011-08-24 08:51:08 51°12.966 2°37.633 23.3116 0.009297 0.051261 -3.020363
2011-08-24 08:51:14 51°12.966 2°37.635 23.3229 0.009297 0.051261 -3.020363
2011-08-24 08:51:19 51°12.967 2°37.637 23.3339 0.009297 0.051261 -3.020363
2011-08-24 08:51:24 51°12.968 2°37.639 23.3083 0.009297 0.051261 -3.020363
2011-08-24 08:51:28 51°12.968 2°37.64 23.3303 0.009297 0.051261 -3.020363
2011-08-24 08:51:34 51°12.969 2°37.642 23.3291 0.009297 0.051262 -3.020363
2011-08-24 08:51:40 51°12.97 2°37.644 23.3132 0.009297 0.051261 -3.020363
2011-08-24 08:51:46 51°12.971 2°37.646 23.311 0.009297 0.051262 -3.020363
2011-08-24 08:51:52 51°12.972 2°37.648 23.3171 0.009297 0.051262 -3.020363
2011-08-24 08:51:57 51°12.973 2°37.649 23.3293 0.009297 0.051262 -3.020363
2011-08-24 08:52:02 51°12.973 2°37.651 23.328 0.009297 0.051262 -3.020363
2011-08-24 08:52:07 51°12.974 2°37.653 23.3196 0.009297 0.051262 -3.020363
2011-08-24 08:52:12 51°12.975 2°37.654 23.2935 0.009297 0.051262 -3.020363
2011-08-24 08:52:17 51°12.976 2°37.656 23.2999 0.009297 0.051262 -3.020363
2011-08-24 08:52:22 51°12.977 2°37.658 23.302 0.009297 0.051263 -3.020363
2011-08-24 08:52:27 51°12.978 2°37.66 23.3221 0.009297 0.051263 -3.020363
2011-08-24 08:52:32 51°12.978 2°37.662 23.3195 0.009297 0.051263 -3.020363
2011-08-24 08:52:37 51°12.979 2°37.664 23.336 0.009297 0.051263 -3.020363
2011-08-24 08:52:42 51°12.979 2°37.665 23.3413 0.009297 0.051263 -3.020363
2011-08-24 08:52:47 51°12.98 2°37.667 23.3412 0.009297 0.051263 -3.020363
2011-08-24 08:52:52 51°12.981 2°37.669 23.3444 0.009297 0.051263 -3.020363
2011-08-24 08:52:57 51°12.982 2°37.671 23.3364 0.009297 0.051264 -3.020363
2011-08-24 08:53:02 51°12.983 2°37.673 23.3274 0.009297 0.051264 -3.020363
2011-08-24 08:53:07 51°12.984 2°37.675 23.3514 0.009297 0.051264 -3.020363
2011-08-24 08:53:12 51°12.985 2°37.677 23.3235 0.009297 0.051264 -3.020363
2011-08-24 08:53:16 51°12.986 2°37.678 23.336 0.009297 0.051264 -3.020363
2011-08-24 08:53:21 51°12.987 2°37.68 23.3469 0.009297 0.051265 -3.020363
2011-08-24 08:53:26 51°12.988 2°37.682 23.3511 0.009297 0.051265 -3.020363
2011-08-24 08:53:31 51°12.989 2°37.683 23.3439 0.009297 0.051265 -3.020363
2011-08-24 08:53:36 51°12.99 2°37.685 23.3471 0.009297 0.051265 -3.020363
2011-08-24 08:53:41 51°12.991 2°37.687 23.3432 0.009297 0.051265 -3.020363
2011-08-24 08:53:46 51°12.992 2°37.689 23.3478 0.009297 0.051265 -3.020363
2011-08-24 08:53:50 51°12.992 2°37.69 23.3516 0.009297 0.051266 -3.020363
2011-08-24 08:53:55 51°12.993 2°37.692 23.3088 0.009297 0.051266 -3.020363
2011-08-24 08:54:00 51°12.994 2°37.694 23.3194 0.009297 0.051266 -3.020363
2011-08-24 08:54:05 51°12.995 2°37.696 23.338 0.009297 0.051266 -3.020363
2011-08-24 08:54:10 51°12.997 2°37.698 23.3555 0.009297 0.051266 -3.020363
2011-08-24 08:54:15 51°12.998 2°37.699 23.3303 0.009297 0.051266 -3.020363
2011-08-24 08:54:20 51°12.999 2°37.701 23.3424 0.009297 0.051266 -3.020363
2011-08-24 08:54:24 51°13 2°37.703 23.3228 0.009297 0.051266 -3.020363
2011-08-24 08:54:29 51°13.001 2°37.704 23.3548 0.009297 0.051266 -3.020363
2011-08-24 08:54:34 51°13.002 2°37.707 23.2913 0.009297 0.051266 -3.020363
2011-08-24 08:54:39 51°13.002 2°37.708 23.3556 0.009297 0.051266 -3.020363
2011-08-24 08:54:44 51°13.003 2°37.71 23.3605 0.009297 0.051267 -3.020363
2011-08-24 08:54:48 51°13.003 2°37.712 23.3573 0.009297 0.051267 -3.020363
2011-08-24 08:54:54 51°13.004 2°37.714 23.3636 0.009297 0.051267 -3.020363
2011-08-24 08:54:59 51°13.005 2°37.716 23.3589 0.009297 0.051267 -3.020363
2011-08-24 08:55:04 51°13.005 2°37.718 23.368 0.009297 0.051267 -3.020363
2011-08-24 08:55:08 51°13.006 2°37.719 23.3621 0.009297 0.051267 -3.020363
2011-08-24 08:55:14 51°13.006 2°37.722 23.3353 0.009297 0.051267 -3.020363
2011-08-24 08:55:19 51°13.007 2°37.724 23.3217 0.009297 0.051267 -3.020363
2011-08-24 08:55:24 51°13.007 2°37.726 23.3716 0.009297 0.051267 -3.020363
2011-08-24 08:55:28 51°13.008 2°37.727 23.3594 0.009297 0.051267 -3.020363
2011-08-24 08:55:34 51°13.008 2°37.73 23.3772 0.009297 0.051267 -3.020363
2011-08-24 08:55:39 51°13.009 2°37.732 23.3588 0.009297 0.051267 -3.020363
2011-08-24 08:55:44 51°13.01 2°37.734 23.3564 0.009297 0.051267 -3.020363
2011-08-24 08:55:48 51°13.01 2°37.735 23.3242 0.009297 0.051267 -3.020363
2011-08-24 08:55:54 51°13.011 2°37.738 23.3676 0.009297 0.051267 -3.020363
2011-08-24 08:55:59 51°13.011 2°37.74 23.3434 0.009297 0.051267 -3.020363
2011-08-24 08:56:04 51°13.012 2°37.742 23.3695 0.009297 0.051267 -3.020363
2011-08-24 08:56:09 51°13.013 2°37.744 23.3726 0.009297 0.051268 -3.020363
2011-08-24 08:56:14 51°13.013 2°37.746 23.3664 0.009297 0.051268 -3.020363
2011-08-24 08:56:19 51°13.014 2°37.748 23.3594 0.009297 0.051268 -3.020363
2011-08-24 08:56:24 51°13.014 2°37.75 23.3347 0.009297 0.051268 -3.020363
2011-08-24 08:56:29 51°13.015 2°37.752 23.3369 0.009297 0.051268 -3.020363
2011-08-24 08:56:34 51°13.016 2°37.754 23.3792 0.009297 0.051268 -3.020363
2011-08-24 08:56:39 51°13.016 2°37.756 23.3735 0.009297 0.051269 -3.020363
2011-08-24 08:56:44 51°13.017 2°37.758 23.3826 0.009297 0.051268 -3.020363
2011-08-24 08:56:48 51°13.017 2°37.76 23.3849 0.009297 0.051269 -3.020363
2011-08-24 08:56:54 51°13.018 2°37.762 23.3664 0.009297 0.051268 -3.020363
2011-08-24 08:56:59 51°13.019 2°37.765 23.3479 0.009297 0.051268 -3.020363
2011-08-24 08:57:04 51°13.019 2°37.767 23.3583 0.009297 0.051269 -3.020363
2011-08-24 08:57:08 51°13.02 2°37.768 23.3593 0.009297 0.051269 -3.020363
2011-08-24 08:57:14 51°13.021 2°37.77 23.3724 0.009297 0.051269 -3.020363
2011-08-24 08:57:19 51°13.021 2°37.773 23.3725 0.009297 0.051269 -3.020363
2011-08-24 08:57:24 51°13.022 2°37.774 23.3401 0.009297 0.051269 -3.020363
2011-08-24 08:57:28 51°13.022 2°37.776 23.3712 0.009297 0.051269 -3.020363
2011-08-24 08:57:34 51°13.023 2°37.779 23.3807 0.009297 0.051269 -3.020363
2011-08-24 08:57:39 51°13.024 2°37.781 23.369 0.009297 0.051269 -3.020363
2011-08-24 08:57:44 51°13.025 2°37.783 23.3621 0.009297 0.051269 -3.020363
2011-08-24 08:57:49 51°13.025 2°37.785 23.3717 0.009297 0.051269 -3.020363
2011-08-24 08:57:54 51°13.026 2°37.787 23.3869 0.009297 0.05127 -3.020363
2011-08-24 08:57:59 51°13.026 2°37.788 23.3756 0.009297 0.05127 -3.020363
2011-08-24 08:58:04 51°13.027 2°37.79 23.3466 0.009297 0.05127 -3.020363
2011-08-24 08:58:09 51°13.028 2°37.792 23.3578 0.009297 0.05127 -3.020363
2011-08-24 08:58:14 51°13.029 2°37.794 23.3863 0.009297 0.05127 -3.020363
2011-08-24 08:58:19 51°13.029 2°37.796 23.3829 0.009297 0.05127 -3.020363
2011-08-24 08:58:24 51°13.03 2°37.798 23.3794 0.009297 0.05127 -3.020363
2011-08-24 08:58:29 51°13.031 2°37.8 23.3584 0.009297 0.05127 -3.020363
2011-08-24 08:58:34 51°13.031 2°37.802 23.3717 0.009297 0.05127 -3.020363
2011-08-24 08:58:39 51°13.032 2°37.804 23.3599 0.009297 0.05127 -3.020363
2011-08-24 08:58:44 51°13.033 2°37.805 23.3668 0.009297 0.05127 -3.020363
2011-08-24 08:58:48 51°13.033 2°37.807 23.369 0.009297 0.051271 -3.020363
2011-08-24 08:58:54 51°13.035 2°37.809 23.385 0.009297 0.051271 -3.020363
2011-08-24 08:58:59 51°13.035 2°37.811 23.3713 0.009297 0.051271 -3.020363
2011-08-24 08:59:04 51°13.036 2°37.813 23.3857 0.009297 0.051271 -3.020363
2011-08-24 08:59:09 51°13.037 2°37.815 23.3954 0.009297 0.051271 -3.020363
2011-08-24 08:59:14 51°13.038 2°37.816 23.3784 0.009297 0.051271 -3.020363
2011-08-24 08:59:19 51°13.038 2°37.818 23.3763 0.009297 0.051271 -3.020363
2011-08-24 08:59:24 51°13.039 2°37.82 23.3665 0.009297 0.051271 -3.020363
2011-08-24 08:59:29 51°13.04 2°37.821 23.3756 0.009297 0.051271 -3.020363
2011-08-24 08:59:34 51°13.041 2°37.823 23.3543 0.009297 0.051271 -3.020363
2011-08-24 08:59:39 51°13.042 2°37.825 23.3961 0.009297 0.051271 -3.020363
2011-08-24 08:59:44 51°13.042 2°37.827 23.4016 0.009297 0.051271 -3.020363
2011-08-24 08:59:48 51°13.043 2°37.828 23.3999 0.009297 0.051271 -3.020363
2011-08-24 08:59:54 51°13.044 2°37.831 23.4007 0.009297 0.051271 -3.020363
2011-08-24 08:59:59 51°13.045 2°37.832 23.3925 0.009297 0.051272 -3.020363
2011-08-24 09:00:04 51°13.046 2°37.834 23.4157 0.009297 0.051272 -3.020363
2011-08-24 09:00:08 51°13.047 2°37.836 23.4105 0.009297 0.051272 -3.020363
2011-08-24 09:00:14 51°13.047 2°37.838 23.406 0.009297 0.051272 -3.020363
2011-08-24 09:00:19 51°13.048 2°37.84 23.4109 0.009297 0.051272 -3.020363
2011-08-24 09:00:24 51°13.049 2°37.842 23.4064 0.009297 0.051272 -3.020363
2011-08-24 09:00:28 51°13.05 2°37.843 23.395 0.009297 0.051272 -3.020363
2011-08-24 09:00:34 51°13.051 2°37.845 23.4118 0.009297 0.051272 -3.020363
2011-08-24 09:00:39 51°13.052 2°37.847 23.4085 0.009297 0.051273 -3.020363
2011-08-24 09:00:44 51°13.053 2°37.849 23.4085 0.009297 0.051273 -3.020363
2011-08-24 09:00:49 51°13.054 2°37.851 23.421 0.009297 0.051273 -3.020363
2011-08-24 09:00:54 51°13.054 2°37.853 23.4153 0.009297 0.051273 -3.020363
2011-08-24 09:00:59 51°13.055 2°37.854 23.4138 0.009297 0.051273 -3.020363